GFSCGP_500_rhum_051.txt.gz
RH
93 85 62 40 40 62 30 27 22 20 22 20 17 10 12 14 15 15 15 16 15 14 12 10 8 8 6 5 5 8 9 9 10 10 10 10 10 16 20 24 20 32 44 48
94 74 79 43 33 36 34 26 23 18 16 18 18 14 17 18 16 15 14 14 14 13 12 11 9 8 7 7 6 5 7 9 9 9 10 10 11 10 14 27 30 22 21 44
95 90 94 69 39 30 27 26 26 23 18 15 14 14 16 16 16 14 14 14 13 12 11 10 9 8 7 6 6 6 6 8 8 8 9 9 10 11 11 11 15 21 16 25
99 100 99 99 68 38 31 28 26 25 21 17 14 13 15 14 12 12 11 10 10 9 8 8 7 6 6 5 5 5 6 7 9 9 7 8 9 10 12 12 14 13 12 14
100 100 100 100 99 78 50 32 28 25 22 19 17 16 18 15 12 11 10 10 9 9 9 9 9 8 8 7 6 6 6 7 8 10 10 10 10 11 12 13 13 14 14 14
98 97 97 97 100 100 93 56 39 29 25 21 20 18 18 15 13 12 12 14 14 14 14 14 13 12 10 9 9 9 9 9 10 11 11 11 11 12 13 14 15 15 14 15
98 96 99 99 100 99 100 89 55 40 30 30 32 24 20 19 17 17 17 17 17 17 17 15 13 12 12 11 11 11 11 10 10 10 9 9 10 11 12 14 15 15 18 17
100 94 84 75 94 98 98 100 92 60 48 40 29 26 26 24 21 21 20 20 19 18 15 14 12 12 11 10 10 8 8 8 8 8 9 9 9 9 8 9 11 12 13 16
99 100 89 63 70 84 58 63 50 35 30 30 29 26 25 23 20 18 16 15 15 14 13 12 11 10 9 8 9 10 11 16 20 21 22 22 22 22 17 13 13 10 11 13
88 91 81 44 32 30 31 31 30 30 32 33 29 26 22 20 17 16 15 14 13 12 10 10 10 9 10 13 19 24 21 20 22 24 25 27 27 24 27 39 35 22 16 16
60 53 51 44 36 35 33 39 36 42 37 35 28 24 21 18 16 16 15 13 11 10 10 11 13 17 22 22 19 18 24 27 27 22 18 16 15 20 39 37 40 58 53 37
74 72 70 61 55 49 46 40 39 39 33 27 26 27 22 16 16 16 14 13 15 20 30 31 27 25 24 19 21 25 26 22 13 13 13 12 12 18 14 40 61 89 66 64
69 61 56 54 51 48 49 48 42 32 28 35 33 25 21 17 18 15 18 20 31 34 26 24 22 17 19 22 21 23 23 16 17 22 23 19 40 65 63 75 70 58 99 100
61 48 45 42 41 39 34 29 27 29 41 36 29 23 20 19 20 24 32 40 34 26 27 26 20 22 23 22 26 20 20 18 24 36 33 24 55 71 81 97 100 93 83 96
39 40 40 36 32 31 30 32 37 41 37 32 27 25 23 24 35 46 50 48 41 32 32 24 23 27 26 29 23 12 14 20 26 42 45 28 67 91 91 90 100 100 100 100
36 34 32 31 30 32 38 42 41 36 30 26 25 25 39 54 66 70 65 49 41 39 31 24 26 29 29 29 22 9 10 17 30 38 43 34 31 34 36 55 62 70 82 100
31 32 30 31 34 41 43 42 34 27 23 26 37 63 76 83 76 56 43 42 53 46 36 30 34 33 32 34 27 24 19 22 35 42 55 61 75 89 98 98 94 94 84 65
30 28 35 47 50 46 39 34 31 28 27 49 80 95 92 81 49 39 37 34 33 33 40 41 37 39 36 41 36 31 31 39 51 52 57 68 88 99 100 100 98 90 76 77
37 48 53 49 39 36 34 29 29 29 55 79 90 92 75 51 43 39 42 38 34 43 44 46 45 44 43 45 42 47 42 46 47 54 54 56 65 75 89 95 100 99 100 95
62 58 50 43 39 34 34 29 33 60 90 90 91 61 55 47 43 50 46 38 36 38 52 55 61 52 49 49 50 49 53 55 65 74 86 66 88 100 93 98 98 98 100 95
62 59 51 46 38 33 29 30 61 92 89 98 66 59 54 49 59 59 48 43 45 42 46 59 68 59 59 56 60 63 63 60 68 68 73 79 91 95 90 98 97 99 100 99
65 57 53 49 40 34 29 40 89 93 92 84 64 49 45 49 52 44 56 53 54 54 48 62 64 67 64 64 66 73 68 68 66 68 73 73 78 89 91 95 97 98 97 89
68 65 59 53 43 39 34 76 98 97 95 73 51 43 40 44 41 37 48 67 62 62 60 63 70 71 76 79 87 78 76 68 67 81 77 64 50 41 40 42 45 47 49 55
62 54 54 51 43 30 45 97 93 91 78 64 54 47 47 46 43 39 39 58 69 76 68 70 71 81 80 86 82 77 70 54 41 39 38 39 42 49 53 56 58 59 59 57
42 47 50 40 24 46 48 79 92 89 68 56 49 46 49 51 46 44 44 50 68 80 80 75 78 81 89 90 71 51 46 45 53 58 60 62 64 66 68 70 73 73 68 66
36 43 39 32 32 48 56 73 92 78 65 52 48 49 48 51 48 44 52 54 66 77 81 80 83 91 93 90 58 50 51 57 62 65 69 72 74 76 78 78 76 76 76 73

GFSCGP_500_rhum_054.txt.gz
RH
100 99 84 69 62 74 56 67 56 34 30 26 21 19 15 16 16 16 14 15 14 14 12 11 11 10 10 9 8 9 8 7 7 10 11 10 12 15 13 13 13 20 32 35
100 94 100 85 60 69 49 60 43 43 50 30 26 25 16 17 17 16 16 16 15 14 12 11 11 10 9 8 8 8 8 8 7 5 8 10 10 10 10 10 11 12 13 33
98 96 88 86 64 67 49 52 39 40 36 24 22 20 20 19 18 14 14 14 15 15 13 12 12 11 10 9 9 8 8 8 7 6 5 6 10 10 10 10 10 12 13 14
100 100 96 80 67 46 44 62 81 35 29 26 28 20 19 18 18 15 14 14 13 13 13 12 11 11 10 10 9 8 7 6 5 6 6 7 7 9 11 12 12 12 11 12
98 99 100 85 62 40 36 52 78 52 30 26 22 19 17 16 16 15 14 14 13 12 12 11 10 10 8 7 7 7 7 7 7 6 6 6 7 8 9 10 13 16 15 14
100 100 100 98 87 56 38 34 62 36 29 25 23 22 20 18 15 13 12 12 11 10 10 9 9 8 9 11 12 12 12 11 10 9 9 9 9 10 10 11 13 17 20 21
100 100 100 100 97 97 58 39 37 40 28 24 22 22 20 18 15 14 12 12 11 10 10 11 13 15 15 16 15 14 13 11 11 10 10 9 9 8 8 9 10 11 13 16
100 93 97 100 99 98 100 83 48 40 34 29 27 24 19 19 17 14 13 12 12 14 16 17 18 19 19 18 15 12 11 10 9 8 8 8 9 10 12 14 14 13 12 11
99 100 98 100 94 98 99 100 93 79 57 53 49 36 33 24 19 17 18 19 20 20 20 18 16 14 12 11 10 9 8 8 9 9 11 16 17 16 18 20 22 25 25 27
100 99 98 90 91 99 98 94 94 94 87 67 46 33 28 26 24 23 22 20 18 16 14 13 12 11 10 9 9 9 10 12 18 19 18 18 21 24 26 27 29 31 36 39
98 99 94 80 73 61 69 62 60 58 44 38 35 32 29 24 23 20 18 17 15 14 13 11 10 9 10 10 13 16 20 18 17 19 20 22 24 21 16 13 12 14 14 13
88 80 84 78 51 42 35 33 32 32 37 39 39 30 26 23 21 21 19 17 14 12 11 10 10 13 17 19 20 19 18 21 20 20 13 16 18 22 28 31 27 20 18 24
84 71 60 58 64 47 39 36 36 39 49 39 31 31 26 22 22 21 18 15 13 13 15 17 24 24 22 21 18 21 23 18 8 9 14 20 26 27 28 26 30 45 37 48
86 83 72 62 58 58 61 56 43 42 35 32 29 28 26 25 21 18 17 16 20 28 43 31 26 25 21 18 24 22 17 12 7 8 14 21 25 30 24 40 61 65 69 89
77 75 65 62 52 52 56 52 43 31 32 30 32 29 24 24 22 20 23 32 40 42 35 31 30 25 21 25 24 20 17 16 11 11 15 21 20 33 50 42 33 65 97 100
49 52 61 43 42 35 32 31 32 37 41 38 33 29 24 22 20 26 42 51 50 47 42 37 33 27 24 29 26 17 19 20 22 25 23 24 27 40 59 73 82 90 93 82
35 38 37 37 34 32 34 40 43 42 37 32 28 25 27 33 51 66 68 54 41 30 27 29 36 34 30 31 30 23 23 24 23 25 24 28 32 31 57 67 69 86 100 99
33 35 34 33 33 34 42 42 41 36 29 26 24 32 60 81 88 76 46 33 28 26 28 32 32 35 33 40 35 32 26 27 26 26 30 40 48 45 54 63 70 73 99 97
32 32 31 35 47 46 43 38 33 31 30 28 45 81 96 94 81 50 41 36 31 32 32 37 43 45 44 50 46 41 36 38 36 34 38 53 57 56 60 58 66 85 87 88
34 31 38 50 50 43 37 34 31 28 33 51 84 95 98 84 58 53 43 39 44 38 33 28 36 50 52 53 52 46 46 47 48 52 43 51 66 58 68 70 71 83 74 89
56 59 57 52 45 41 38 33 28 28 57 84 99 100 78 65 60 49 47 52 52 45 39 37 42 50 62 61 60 58 62 56 53 53 55 56 58 67 70 69 74 82 95 94
63 61 58 53 48 44 39 32 28 33 72 94 100 92 72 64 52 41 39 57 62 55 51 47 48 49 64 63 67 78 74 64 61 65 71 59 48 36 31 31 34 39 46 50
79 69 63 58 55 51 44 38 31 41 92 100 100 81 65 54 40 37 38 44 54 59 64 63 59 54 60 64 64 74 82 73 65 59 44 35 35 40 44 48 51 54 56 57
70 69 70 66 61 57 49 40 36 64 94 99 96 70 59 46 44 45 45 42 48 64 68 71 70 69 66 70 74 77 73 55 40 40 49 51 53 54 56 59 61 63 64 61
56 63 63 58 54 51 48 34 36 80 98 100 87 66 58 53 54 54 47 46 49 58 72 73 74 72 77 80 81 78 55 45 55 60 60 59 58 60 64 67 69 68 69 69
39 43 44 49 49 49 39 26 47 74 94 94 77 64 54 53 52 53 51 44 50 56 70 94 82 77 81 86 92 80 57 56 63 67 67 67 66 66 67 72 71 70 70 71

GFSCGP_500_rhum_057.txt.gz
RH
39 61 90 74 49 52 70 86 90 98 89 89 54 39 38 40 40 41 37 31 26 22 19 16 18 18 15 12 11 11 12 12 11 9 8 8 7 8 12 14 15 14 13 14
49 58 99 100 64 51 60 78 86 94 83 98 48 34 30 22 25 24 21 18 18 17 16 14 12 12 11 10 11 12 11 10 10 10 9 8 8 6 6 10 13 14 12 12
26 82 100 97 66 48 54 71 74 69 88 96 63 32 27 21 19 18 17 16 14 12 10 9 9 9 9 9 10 11 10 10 9 9 9 8 8 8 8 9 12 13 13 12
36 87 100 99 99 49 52 73 88 93 96 81 62 42 29 24 21 18 16 15 14 13 11 10 10 10 10 10 10 11 10 10 10 9 8 7 6 5 7 8 11 14 14 13
57 87 99 98 99 85 53 68 69 58 98 71 54 53 52 31 26 24 18 16 14 13 12 11 11 11 10 10 10 10 9 8 7 7 7 8 8 8 7 7 8 9 12 14
89 98 100 99 95 88 60 63 59 42 93 64 45 49 38 39 28 27 31 18 17 15 13 11 10 10 10 9 9 8 7 8 10 12 13 12 11 10 10 10 10 10 12 13
98 100 100 99 97 94 64 58 50 52 61 94 64 35 40 42 41 25 18 17 17 16 14 12 10 10 9 9 8 9 12 14 16 16 14 12 11 10 10 9 9 8 9 9
100 100 100 99 94 81 66 52 44 42 53 77 80 55 35 30 28 23 20 16 14 12 12 11 10 9 9 10 13 15 18 18 18 14 11 10 8 8 9 9 11 14 17 20
100 100 100 100 100 100 84 52 42 37 38 69 53 46 38 27 21 19 17 14 14 13 12 11 11 12 14 17 19 19 16 12 10 9 8 8 9 12 14 13 14 17 21 26
98 100 100 100 100 100 100 100 82 55 46 49 49 38 29 25 23 21 19 18 16 15 14 15 17 19 19 16 12 11 10 9 9 9 9 13 13 13 15 17 18 18 16 16
98 98 100 98 99 98 100 100 100 98 76 67 55 46 41 36 32 27 23 20 20 21 21 20 18 14 12 11 10 10 10 10 12 14 13 14 13 10 8 8 12 13 17 18
100 100 96 99 98 99 95 90 91 89 97 95 85 60 50 35 28 27 27 25 22 19 16 15 13 12 10 10 11 12 14 16 14 14 15 12 8 7 8 7 9 12 21 31
88 88 90 84 83 79 72 59 55 59 53 60 43 39 32 30 29 26 23 21 19 17 16 14 12 11 12 14 18 18 17 16 18 17 13 10 9 8 11 13 10 12 22 41
84 80 71 70 67 62 51 39 32 32 34 44 40 35 34 30 27 24 23 20 18 16 14 14 15 19 27 24 23 20 18 21 19 15 10 11 16 17 14 12 10 16 29 43
78 76 71 62 61 59 60 66 63 49 50 42 41 34 30 30 29 27 24 22 20 19 23 31 37 33 29 26 23 20 22 20 19 15 12 13 14 10 12 18 22 25 37 53
90 92 87 79 71 66 59 60 74 84 65 41 33 30 27 32 30 26 24 22 28 37 43 44 41 36 33 32 28 24 26 24 21 18 16 15 15 13 20 19 25 32 40 50
85 77 70 67 55 49 43 42 44 49 41 39 34 32 33 30 28 27 28 40 54 54 48 33 22 19 24 30 32 27 28 30 26 22 18 16 18 22 21 24 29 36 44 49
46 47 50 54 46 42 40 35 37 40 36 41 38 35 32 26 28 45 66 73 58 35 27 22 22 26 23 26 30 31 41 36 32 26 24 25 23 30 27 32 36 38 47 50
37 34 37 38 35 34 35 39 46 45 41 36 29 28 28 38 69 88 86 58 38 35 28 26 23 23 38 43 43 46 45 43 39 36 34 35 34 35 36 41 45 48 52 55
34 34 35 34 32 33 40 44 42 38 34 34 32 30 51 83 96 93 64 45 42 37 30 30 25 25 24 35 48 48 48 48 46 43 44 47 44 45 43 46 45 44 38 43
32 34 33 32 39 48 46 41 37 34 30 33 35 57 90 100 98 78 58 51 47 38 36 38 39 33 31 33 45 55 53 56 58 54 51 50 49 51 42 29 28 30 34 40
37 42 48 49 53 48 44 41 37 36 34 41 70 94 100 99 84 72 63 54 48 44 47 51 49 45 41 37 44 57 59 72 72 64 60 65 65 40 32 38 42 45 48 51
67 59 62 57 55 51 47 46 42 35 32 37 86 100 100 96 80 69 55 38 32 36 58 58 55 57 51 49 49 50 60 66 69 69 64 48 37 44 46 46 47 47 52 54
86 76 72 67 61 59 57 54 49 41 35 33 82 100 100 96 76 55 45 43 40 39 43 52 60 62 62 59 62 58 64 77 73 59 40 49 52 51 48 46 48 53 56 57
75 76 75 72 69 65 62 59 54 47 39 33 81 96 100 92 63 53 54 50 46 46 47 47 48 57 66 66 67 71 76 78 60 46 56 59 58 56 52 54 56 58 60 58
36 45 57 65 62 60 57 54 51 46 34 38 82 100 100 90 66 58 57 55 52 49 48 54 53 54 74 74 70 72 78 82 65 58 66 69 70 66 61 61 59 56 56 57

GFSCGP_500_rhum_060.txt.gz
RH
61 72 45 26 44 89 78 69 82 89 93 95 96 96 77 68 77 60 44 37 36 31 27 24 20 18 18 20 21 20 17 12 10 10 9 14 16 21 19 8 10 8 10 17
54 49 50 48 72 100 91 59 76 97 77 92 97 94 84 68 65 74 58 48 34 29 26 21 19 19 20 20 19 20 17 12 10 11 12 10 9 11 11 9 8 8 19 17
61 38 33 37 72 97 85 56 60 79 62 86 97 94 85 64 55 70 72 47 38 32 29 24 19 19 18 18 16 15 13 11 11 12 11 10 8 8 10 9 8 8 8 14
65 38 28 40 84 100 84 62 60 66 64 93 98 89 88 76 39 43 41 39 33 28 25 20 17 15 12 10 9 9 10 10 10 11 10 10 10 9 8 7 7 7 7 8
36 33 41 72 88 100 98 61 56 61 82 91 94 87 82 71 35 29 22 19 18 16 15 14 12 11 10 9 9 9 10 10 10 10 10 10 8 7 7 8 10 10 9 9
30 36 61 100 100 94 89 58 52 61 82 91 90 92 82 72 41 30 24 21 19 16 16 14 12 11 13 14 10 9 9 9 9 9 8 8 9 12 14 14 14 12 11 11
45 46 49 99 100 99 99 86 56 59 73 83 94 92 76 69 53 44 32 26 32 38 31 18 16 16 15 18 14 10 9 9 9 8 9 13 16 17 17 14 11 9 8 9
61 78 96 100 89 99 100 100 84 56 65 72 73 83 60 53 57 48 38 37 31 29 40 29 21 21 18 13 11 10 9 8 9 13 16 19 19 14 10 8 8 9 11 12
94 87 96 97 100 97 89 90 86 73 62 68 55 65 81 64 53 44 42 34 34 24 20 17 14 13 12 11 10 10 10 12 16 19 18 12 10 9 8 9 10 11 11 12
100 90 89 95 100 98 100 97 89 70 75 65 61 60 70 69 72 51 38 32 25 24 24 15 13 12 11 11 11 12 16 19 17 12 11 10 8 9 9 10 9 9 8 7
100 99 93 95 98 98 93 100 85 75 60 56 47 43 46 68 55 43 32 24 21 19 18 16 14 13 12 13 17 19 17 13 12 11 9 9 11 11 12 10 8 7 8 8
94 98 100 100 100 99 99 92 96 85 83 72 50 47 41 46 51 42 35 34 32 29 22 18 18 20 21 19 16 14 12 11 10 9 12 13 12 14 10 7 9 10 10 8
89 87 97 96 100 99 100 100 99 100 98 99 97 79 65 60 56 46 43 39 29 27 26 24 22 18 16 14 12 11 10 12 16 16 13 14 15 8 7 6 6 8 12 14
85 79 79 89 99 97 98 98 91 74 79 72 73 79 70 60 46 47 34 30 28 26 22 19 17 15 13 11 11 15 20 21 19 17 18 19 12 10 7 8 10 11 13 14
68 75 75 74 75 77 70 63 52 43 39 46 46 46 42 39 38 32 30 27 23 21 19 17 14 13 13 14 26 29 28 24 20 21 22 20 15 13 10 11 11 11 15 19
76 78 75 69 64 62 61 61 61 50 53 37 38 38 41 39 38 34 30 26 23 21 18 17 17 22 31 40 38 34 30 27 26 24 23 23 19 14 12 15 14 18 21 26
81 81 82 78 75 67 61 62 59 61 71 75 50 45 38 33 36 34 31 28 24 22 23 30 40 47 45 36 28 22 23 30 28 26 29 27 22 18 19 21 19 27 27 28
91 84 78 76 71 67 60 52 49 54 65 71 71 62 41 40 38 35 30 27 31 40 61 58 40 25 22 21 21 21 26 28 32 33 33 33 34 29 30 29 29 32 32 36
81 68 59 72 56 60 52 54 41 37 41 43 45 45 42 37 34 30 28 47 68 75 55 32 28 24 20 20 27 36 43 44 43 42 40 39 40 42 40 38 37 37 34 28
68 46 36 44 43 43 37 41 40 39 45 45 43 39 32 30 29 45 80 98 89 54 39 36 31 24 25 23 22 24 27 36 44 49 52 51 48 49 47 44 46 32 28 32
57 36 33 33 33 33 35 41 44 48 44 40 37 37 37 36 57 83 99 95 65 47 43 39 34 33 36 34 30 28 26 37 51 56 59 61 57 56 56 58 36 33 37 37
44 32 32 31 32 34 44 48 46 44 41 36 35 35 42 64 89 98 97 82 61 57 54 47 38 42 43 41 39 35 36 41 49 58 71 74 68 60 59 37 41 42 38 37
60 47 42 43 44 48 49 50 47 42 40 37 34 42 72 93 100 100 92 76 74 60 41 40 40 44 45 48 46 48 50 52 50 54 69 73 62 45 41 49 46 42 41 43
83 70 65 59 53 57 56 52 50 48 46 41 36 32 64 100 98 100 96 86 62 41 38 34 34 39 44 49 53 59 61 57 63 68 72 63 48 52 57 51 48 47 45 44
92 91 82 76 70 60 58 58 57 56 56 52 43 37 48 100 100 100 98 87 53 50 48 43 42 44 43 44 54 63 65 60 66 78 76 53 56 66 66 64 55 54 54 53
34 45 63 73 73 68 64 67 64 60 59 55 50 43 38 81 99 100 97 69 61 61 57 47 42 43 47 49 54 64 69 70 72 77 82 63 65 74 82 84 76 70 65 63

GFSCGP_500_rhum_063.txt.gz
RH
96 88 46 26 25 33 71 96 88 72 68 86 98 100 98 93 87 92 69 75 63 46 41 36 32 27 24 20 19 19 16 15 15 18 16 14 12 19 39 19 11 20 15 20
94 60 68 45 33 32 52 82 84 93 72 82 94 94 99 83 79 81 88 72 71 68 60 49 43 35 28 24 21 20 19 18 17 15 14 13 11 10 11 10 8 9 13 12
73 58 67 54 39 33 33 56 77 87 83 72 76 84 91 82 72 71 84 89 77 66 57 54 49 39 29 24 21 19 19 18 18 16 16 12 9 8 10 10 10 10 9 8
78 76 64 58 49 40 34 48 90 95 71 65 69 69 85 94 93 75 79 80 77 63 60 54 46 34 26 26 20 19 20 19 17 13 11 9 8 7 8 8 10 10 8 7
82 56 40 48 49 37 38 94 100 91 69 61 65 74 74 80 76 72 68 75 74 69 63 50 39 30 30 30 26 18 16 11 9 9 9 9 9 9 8 9 8 8 9 11
52 50 41 37 35 39 65 92 88 94 70 58 60 76 67 73 78 87 73 59 62 59 50 47 38 22 16 14 13 12 10 10 10 10 10 10 10 9 9 8 7 12 15 15
90 73 43 31 31 64 80 90 95 99 78 55 59 74 59 73 77 74 78 54 46 45 26 19 17 15 14 13 12 11 14 17 17 14 11 10 9 9 8 11 15 18 18 12
63 68 48 40 73 93 86 100 95 78 68 54 56 64 60 73 66 73 76 35 29 24 23 22 22 24 19 17 16 20 23 22 14 12 10 9 9 9 14 18 19 11 9 8
41 34 28 49 92 100 87 89 97 96 83 57 54 54 67 79 68 74 73 48 40 30 26 29 39 47 50 45 29 25 24 18 13 11 9 9 11 16 19 12 10 9 9 9
54 45 56 70 97 100 98 100 97 98 95 86 54 52 61 64 72 62 65 62 44 40 41 40 28 21 20 19 18 16 14 12 11 10 11 15 19 15 11 10 8 10 10 10
86 89 80 97 94 87 100 94 94 98 95 83 73 59 62 64 73 88 83 64 46 44 33 30 33 34 30 22 15 13 13 12 12 13 19 16 12 11 9 10 11 11 10 7
88 82 94 77 74 90 100 100 93 99 92 86 72 64 64 62 76 86 81 78 65 47 32 26 22 20 19 17 15 15 15 16 18 18 14 12 10 9 12 12 12 9 6 6
98 97 84 87 87 99 94 80 80 96 98 88 74 58 60 50 47 43 45 60 44 36 33 34 29 27 23 19 19 20 19 17 15 13 11 11 14 14 12 14 9 7 8 9
94 94 100 98 100 98 89 82 83 86 99 99 90 78 98 98 86 70 62 53 50 46 45 36 30 28 25 22 18 15 14 13 11 11 15 18 17 15 16 16 11 10 11 11
89 86 88 95 98 99 99 100 99 99 97 87 80 63 66 93 92 84 47 62 47 35 33 31 25 21 18 16 15 13 12 12 14 18 22 21 19 20 21 19 13 15 13 15
69 78 75 74 75 76 86 86 89 88 76 53 48 47 49 50 63 81 46 36 35 31 26 24 22 19 17 14 14 13 15 16 24 27 27 27 26 22 19 21 21 19 18 22
66 69 80 82 74 70 66 64 62 57 54 51 48 45 44 46 54 44 42 37 35 30 28 24 20 18 16 17 21 23 24 26 30 30 27 28 26 26 30 29 28 28 29 30
80 81 78 85 80 73 68 65 62 61 61 61 66 69 59 45 41 39 35 36 34 30 26 24 25 28 40 42 35 24 19 20 20 23 28 35 33 38 39 38 38 37 40 37
73 80 87 78 76 70 68 65 60 53 53 59 65 76 80 72 68 56 40 36 31 29 33 37 59 58 40 28 22 19 19 23 30 41 45 47 47 46 46 44 43 45 48 42
79 76 81 61 53 67 59 58 56 56 44 43 44 44 44 45 43 41 36 32 31 44 75 87 58 40 34 30 22 21 21 22 22 27 36 51 54 59 58 55 52 57 56 38
75 74 67 46 35 45 68 52 44 47 51 52 48 47 46 40 35 33 31 39 76 100 97 64 48 44 35 33 29 30 30 30 29 29 36 44 53 70 71 65 71 70 43 42
82 68 56 37 33 36 38 35 45 52 52 51 44 40 38 37 37 35 42 69 91 100 78 56 49 44 43 40 37 43 41 39 40 41 44 46 56 69 70 69 55 42 51 46
87 75 52 38 34 36 37 39 49 49 46 43 41 37 37 42 49 66 93 100 100 97 74 63 57 52 54 48 44 52 49 47 48 49 52 60 65 73 66 53 57 61 52 49
83 85 68 51 47 42 48 50 51 50 47 45 42 38 35 33 45 80 97 97 98 94 81 71 46 37 42 43 43 43 44 45 50 57 61 68 78 72 49 55 70 66 63 58
80 88 89 76 64 60 59 62 60 57 54 53 52 50 45 41 37 64 97 94 94 96 90 57 49 47 45 44 41 41 41 43 54 64 69 71 83 80 54 67 83 87 86 78
38 46 61 79 80 75 74 74 67 64 64 62 59 56 53 49 42 46 91 100 100 100 74 60 58 54 51 46 43 42 43 44 52 65 77 76 79 89 72 68 78 91 98 97

GFSCGP_500_rhum_066.txt.gz
RH
100 97 69 34 31 21 30 64 86 74 91 96 100 100 97 89 90 82 89 97 89 67 63 59 47 36 32 29 26 24 21 20 18 16 15 13 14 14 13 14 30 30 43 46
99 78 88 62 38 24 30 43 62 99 93 92 91 96 98 96 86 81 89 94 93 85 70 63 55 46 38 34 31 28 24 21 19 19 18 17 16 16 15 13 14 14 32 39
90 74 86 65 41 29 25 40 63 75 81 77 86 90 84 71 79 81 78 87 84 78 79 70 58 46 41 36 33 30 26 24 22 20 18 16 16 18 18 15 11 9 8 9
86 88 71 63 45 33 27 27 35 54 72 68 72 65 69 83 80 81 94 85 84 79 69 68 70 62 51 48 46 42 35 27 22 20 17 15 14 15 14 11 10 9 10 10
82 81 62 68 53 38 34 32 27 32 49 55 63 66 56 79 90 64 83 83 73 71 70 71 69 66 56 57 74 69 62 52 45 24 19 17 14 11 8 8 8 8 10 9
96 79 83 72 59 48 40 33 30 39 39 44 44 51 47 61 68 87 84 81 76 68 67 71 74 67 59 52 52 54 62 54 46 37 26 16 10 8 9 11 10 8 9 8
100 82 64 67 61 51 39 30 34 48 51 35 55 64 36 56 68 71 75 88 91 82 69 66 68 72 65 52 42 30 30 32 29 26 16 12 12 14 20 18 12 9 8 8
88 84 52 40 39 33 30 33 53 69 59 55 66 47 31 48 65 68 67 76 88 84 61 57 65 54 44 41 30 19 15 13 12 11 13 18 25 19 14 11 9 8 10 15
73 67 60 48 35 30 31 26 48 72 80 75 66 54 47 50 60 79 81 88 94 73 48 38 43 43 23 19 17 17 16 16 15 18 25 29 20 16 12 10 9 12 18 16
61 59 56 52 43 38 43 98 83 81 83 70 64 55 48 49 59 80 96 90 92 89 42 35 27 25 24 22 28 35 40 41 43 40 39 30 21 15 11 11 15 18 13 10
60 50 50 45 28 40 48 70 75 93 84 75 72 63 50 49 52 90 98 95 96 92 53 41 30 28 29 29 34 37 36 31 24 19 17 14 12 11 12 18 15 11 10 12
79 85 54 37 41 49 70 77 86 96 86 80 75 69 70 61 63 82 95 93 84 89 62 46 37 39 41 39 36 30 29 29 24 14 13 12 12 18 16 12 11 10 13 13
91 87 85 54 52 56 66 63 81 87 82 82 92 71 72 70 82 94 95 97 96 96 88 61 50 42 35 31 28 27 26 22 16 15 16 19 17 12 11 10 12 15 15 15
89 78 80 82 82 78 83 80 92 88 76 83 77 81 86 90 95 91 90 96 95 93 88 74 60 36 34 33 26 24 21 20 20 20 16 13 12 11 14 17 17 17 17 17
86 99 97 81 77 88 92 96 97 77 78 82 87 76 100 100 100 99 97 91 77 66 66 63 56 46 38 30 28 24 21 18 15 14 13 13 14 20 22 21 20 20 19 19
86 92 93 95 96 93 90 88 92 79 71 67 86 87 98 93 82 100 97 93 53 65 62 43 38 44 40 24 21 19 16 16 15 15 16 19 24 29 29 28 26 21 20 25
59 72 81 85 84 80 74 78 88 96 90 89 75 62 54 42 48 68 74 85 51 40 74 67 36 35 27 22 19 21 19 19 21 19 21 24 28 29 25 24 24 25 30 32
66 64 61 65 79 72 76 72 66 65 66 60 56 57 57 50 44 58 60 50 49 59 48 34 33 29 25 24 22 21 22 27 26 21 17 16 16 18 22 29 35 38 39 40
70 68 72 69 71 74 78 74 72 66 62 60 59 62 63 73 61 46 42 41 39 41 38 35 32 40 41 43 45 42 31 23 22 21 21 21 26 37 44 45 46 48 48 54
75 78 70 74 75 76 72 70 68 66 61 54 51 57 60 73 80 76 74 65 48 40 38 36 45 52 65 58 46 33 27 21 19 20 21 21 23 29 37 49 57 62 64 67
69 83 78 75 77 52 46 82 71 60 56 59 49 46 48 49 49 49 47 43 39 35 37 65 85 90 69 52 44 38 33 28 27 30 30 30 32 34 38 46 60 73 72 72
52 72 82 74 68 45 39 43 72 52 58 59 61 59 52 57 49 41 40 40 41 50 79 98 100 78 61 55 50 48 46 38 36 41 43 43 44 44 46 56 67 70 58 63
54 66 80 73 52 38 37 38 40 40 49 56 55 54 46 40 39 40 42 44 55 85 100 100 100 76 70 67 60 58 57 49 47 52 50 48 46 47 56 66 68 53 63 78
66 67 79 78 61 44 41 46 42 44 52 54 49 46 44 41 40 45 69 100 100 100 100 100 99 83 76 62 60 58 60 50 44 46 49 50 51 55 58 75 72 54 68 83
71 75 80 85 81 69 63 57 58 57 55 53 51 49 47 45 42 39 42 56 85 100 100 100 100 92 73 49 44 45 49 46 44 43 46 44 49 63 63 70 84 64 66 80
71 66 58 75 80 94 94 78 68 64 63 61 60 58 57 56 54 50 46 41 45 83 98 97 100 100 77 59 53 54 51 48 45 44 43 44 46 52 58 69 80 85 83 90

GFSCGP_500_rhum_069.txt.gz
RH
100 98 69 41 25 18 17 29 70 96 96 94 97 99 96 97 97 98 95 99 98 91 81 78 71 62 55 40 29 27 26 25 23 22 26 18 16 14 14 17 18 23 31 33
100 84 100 90 50 25 18 31 58 82 99 98 98 97 98 96 89 94 100 96 98 91 87 78 72 69 60 48 39 31 27 26 24 23 22 20 18 17 16 16 16 15 14 13
91 96 99 94 64 32 20 33 54 78 98 95 96 97 93 86 74 75 92 80 77 74 74 81 76 72 66 59 50 41 34 30 28 26 24 22 21 19 18 18 16 14 14 13
90 100 94 89 61 39 22 28 39 54 85 90 96 84 93 77 68 70 74 80 80 75 67 69 78 74 67 63 57 50 43 38 34 31 28 26 24 22 19 17 19 18 16 13
91 97 95 94 59 43 28 24 34 41 51 65 84 88 76 79 66 61 60 65 76 78 82 79 73 77 78 70 62 57 47 41 40 39 38 34 33 31 23 17 17 14 13 9
99 96 100 92 65 42 31 27 25 23 27 20 28 40 46 64 57 65 89 73 72 68 79 82 79 78 74 74 73 68 60 52 49 49 51 55 56 50 40 35 24 9 9 10
99 94 84 79 62 44 34 30 27 28 26 18 22 20 17 40 54 59 77 94 74 65 67 74 78 80 77 74 70 69 64 58 60 64 65 65 57 51 46 33 14 14 16 24
98 96 80 76 59 45 40 35 31 27 20 23 37 17 11 29 41 51 62 80 83 74 64 70 73 70 70 70 71 70 64 57 49 38 36 41 45 36 23 12 12 25 27 19
82 81 72 68 67 58 44 38 35 27 28 57 48 26 30 31 42 49 56 65 76 80 86 84 80 83 75 67 67 68 66 60 51 42 24 16 14 12 12 20 32 27 20 15
96 98 75 60 61 54 45 41 32 26 26 31 44 49 42 48 50 51 57 70 83 91 87 92 91 87 77 60 64 60 44 35 29 19 16 15 17 22 27 38 38 25 17 14
84 79 71 57 48 42 32 25 27 49 48 45 50 54 62 54 56 56 57 72 94 93 100 100 95 74 60 53 51 53 40 22 19 20 31 39 37 40 43 36 20 14 12 12
58 56 48 51 50 48 38 29 34 48 53 49 47 44 69 68 63 56 56 66 82 96 95 94 97 100 49 43 35 29 24 23 26 33 37 40 39 26 19 15 13 12 16 16
58 69 43 41 42 46 37 25 47 42 56 38 54 55 87 78 77 66 63 76 75 96 100 93 92 91 52 39 30 28 31 32 33 34 28 28 34 37 19 13 17 17 13 12
84 93 90 77 46 33 34 46 69 61 49 54 64 87 99 81 84 92 99 97 99 93 94 85 92 92 64 49 40 39 39 42 43 40 33 28 23 16 18 18 14 12 17 19
100 100 98 96 92 85 57 64 57 56 73 66 82 78 100 98 96 96 93 91 95 90 97 100 98 98 92 80 64 59 51 35 28 24 22 21 20 17 14 12 17 23 24 23
91 99 100 98 88 76 78 71 70 70 72 72 74 73 98 98 100 99 99 99 100 99 95 92 88 97 100 96 89 64 38 28 25 22 19 15 14 15 20 22 24 27 29 29
58 69 87 92 97 93 79 83 79 85 83 84 74 90 82 81 97 80 72 86 100 100 98 97 86 64 54 50 65 48 28 22 19 17 16 18 20 24 26 27 31 31 26 22
59 61 60 66 75 73 82 75 72 77 80 81 89 93 73 67 67 47 55 63 78 97 56 55 85 95 73 52 61 52 30 22 25 24 26 29 26 21 18 17 20 24 30 38
65 63 63 58 63 62 64 73 74 68 68 66 63 63 59 59 61 67 59 60 69 76 71 71 81 51 39 40 42 38 37 43 42 34 29 26 28 26 26 29 33 39 38 39
72 71 71 67 67 70 72 74 73 73 70 66 63 60 59 58 61 72 73 51 46 45 42 45 44 40 38 48 63 69 62 48 38 30 24 22 21 23 22 21 22 26 32 37
59 63 65 68 66 70 78 72 65 68 62 62 61 58 51 54 59 66 75 80 73 73 60 53 50 51 60 72 81 72 57 47 41 35 30 28 28 29 31 32 33 34 37 44
52 46 63 74 71 75 74 62 46 62 67 62 57 62 51 48 51 50 53 58 57 51 49 42 51 77 96 99 88 69 60 53 46 44 42 35 37 38 41 41 36 40 40 47
50 44 53 73 85 70 62 48 40 44 67 58 57 64 66 66 61 62 59 46 44 48 51 60 84 100 100 99 83 74 68 60 58 52 55 46 43 44 50 45 45 40 45 54
49 48 53 67 81 78 62 42 37 39 42 41 48 64 65 70 59 52 47 48 51 61 79 100 100 100 100 100 92 78 70 67 62 57 57 51 41 43 45 48 49 44 45 58
73 66 71 76 86 82 73 57 43 47 45 49 55 61 64 51 53 54 42 43 52 98 100 100 100 100 100 100 96 85 59 48 55 59 55 52 47 44 44 44 44 45 52 62
94 86 75 83 74 86 97 87 68 58 58 61 59 57 55 57 53 49 48 46 45 47 56 78 96 100 98 99 100 84 59 55 48 52 57 55 54 45 43 47 48 51 57 64

GFSCGP_500_rhum_072.txt.gz
RH
100 100 78 44 18 17 21 22 39 49 57 81 96 98 98 98 100 96 86 83 84 86 76 66 56 49 56 56 50 44 40 35 31 27 26 24 23 23 19 18 18 15 15 18
100 92 96 62 24 18 18 18 27 66 85 83 95 94 98 97 98 96 88 99 95 99 93 82 68 60 59 62 61 49 43 35 30 28 26 28 27 24 24 21 18 17 16 17
94 95 94 78 38 21 19 19 24 72 97 96 97 96 94 94 97 96 94 96 92 88 91 85 84 79 73 73 71 66 57 47 38 32 29 27 25 24 23 22 21 21 20 21
98 100 100 77 56 36 25 23 29 51 64 70 95 83 91 99 96 96 98 97 94 93 96 90 88 85 86 82 77 73 68 64 54 45 37 34 30 28 28 26 25 24 24 23
90 87 89 83 81 60 37 31 30 45 68 71 85 76 85 95 94 87 97 96 94 92 92 91 90 89 85 83 81 77 73 68 63 57 50 44 40 35 31 29 28 26 25 24
96 100 100 100 91 83 55 31 28 34 40 55 57 66 70 82 80 96 97 97 97 94 88 81 78 81 78 75 78 74 70 65 62 59 57 54 48 42 39 37 36 40 48 52
99 100 100 99 100 77 48 26 26 27 34 37 37 37 34 41 71 72 94 95 92 86 82 80 75 77 78 77 72 70 73 72 71 69 65 55 51 49 50 56 63 66 52 46
88 100 100 84 89 72 47 34 26 22 26 27 24 24 21 21 26 47 70 83 84 69 60 60 69 69 71 70 73 74 71 68 67 66 66 65 64 60 58 57 52 57 50 29
96 93 89 78 82 67 48 34 29 26 24 24 20 14 14 26 22 22 45 58 71 67 70 75 69 67 62 66 70 73 74 73 70 66 64 62 63 59 48 38 30 22 15 12
100 98 83 74 72 57 46 41 35 30 30 25 15 28 42 44 34 23 26 40 53 58 69 80 79 76 71 64 62 60 62 64 63 64 64 62 60 55 48 36 19 14 18 24
96 87 81 79 67 64 55 45 38 37 29 22 18 28 44 48 46 40 33 40 50 60 69 78 81 77 77 82 79 68 64 64 64 65 60 54 49 41 24 18 22 29 38 40
85 76 81 75 72 69 60 51 50 38 26 31 32 28 54 59 62 56 47 52 54 61 68 78 83 83 78 78 86 87 76 69 65 62 63 59 34 21 20 26 36 37 39 26
80 80 84 80 68 52 40 43 40 35 34 25 25 24 72 61 67 72 70 62 61 59 66 85 95 93 89 92 99 94 77 57 52 59 51 34 24 23 28 34 38 32 34 39
46 46 46 49 49 56 52 52 49 46 30 25 22 50 77 79 80 80 76 61 57 57 66 71 80 92 88 90 92 92 91 54 36 33 28 27 30 33 39 42 45 34 24 18
44 50 67 94 81 49 40 32 42 39 34 53 62 52 86 92 88 86 81 76 68 68 76 70 85 82 99 92 88 89 80 61 44 38 36 41 45 49 43 26 21 19 18 15
94 100 100 100 100 99 84 46 32 41 60 49 66 55 99 88 76 94 100 99 95 90 97 100 100 100 100 100 98 94 88 74 64 60 62 66 60 32 24 21 18 15 14 16
67 73 85 96 98 98 89 98 91 70 70 80 57 91 82 91 91 97 92 95 95 94 93 100 100 100 99 98 98 100 100 96 95 91 82 41 25 21 17 16 16 16 18 22
61 62 56 61 73 74 94 97 99 98 97 92 94 95 88 84 95 97 97 93 76 82 98 100 100 100 98 93 92 88 76 80 73 38 26 21 20 21 20 22 23 23 21 20
58 65 64 57 61 58 59 64 76 79 80 73 73 73 78 83 74 60 85 71 48 48 78 94 78 62 94 97 83 72 67 86 94 64 60 37 48 36 30 26 27 29 35 38
41 64 70 68 67 65 68 64 58 58 65 63 71 68 64 62 63 66 66 74 71 53 58 76 94 84 75 91 77 61 64 65 62 64 64 49 38 32 32 32 30 29 28 28
45 45 54 63 58 60 74 72 74 65 57 60 64 63 65 64 61 60 60 62 67 70 49 52 51 58 61 53 62 79 96 91 75 61 49 42 39 39 34 31 30 33 35 34
52 46 51 56 56 68 75 73 76 71 57 53 67 65 61 58 55 50 54 60 68 77 83 83 90 77 73 67 76 76 78 83 77 63 54 51 46 44 38 38 41 42 41 39
60 55 47 47 51 55 68 70 69 70 54 45 57 65 59 63 61 49 50 53 54 56 60 56 53 52 61 91 99 100 100 95 86 71 68 66 63 59 53 44 46 46 44 44
67 60 55 48 51 51 55 73 67 58 43 39 46 65 52 66 65 69 66 62 62 61 50 51 53 62 98 100 100 100 100 99 95 88 83 78 70 65 64 53 45 45 50 49
92 64 50 54 62 47 65 74 76 62 45 39 41 42 44 52 65 69 75 64 55 59 61 58 94 100 98 100 100 100 100 100 97 80 74 75 74 68 64 62 57 52 50 51
98 100 86 80 74 80 87 78 88 82 69 52 52 53 54 58 63 71 55 65 66 47 54 51 89 100 94 100 100 100 100 100 100 82 61 55 63 69 66 64 64 55 50 49

GFSCGP_500_rhum_075.txt.gz
RH
89 100 90 64 30 21 25 24 51 43 46 52 87 98 94 95 96 96 87 72 64 60 56 62 59 65 78 73 63 55 57 61 62 62 63 54 47 41 33 28 26 27 26 21
99 97 100 97 34 19 19 22 28 62 74 76 98 98 97 98 97 99 85 75 72 64 61 57 62 67 66 64 57 52 50 52 55 54 50 42 38 34 30 28 29 30 26 24
97 100 100 93 65 20 19 23 37 50 67 68 90 84 77 97 99 97 96 88 79 69 71 84 78 74 72 72 68 57 54 56 53 48 43 40 36 33 30 28 28 27 25 24
100 100 100 91 72 23 19 23 32 35 37 38 61 59 67 96 91 95 93 93 72 68 78 79 82 80 76 73 74 71 69 66 60 52 45 41 37 33 30 28 29 28 26 27
95 100 97 88 76 29 19 20 23 24 25 51 55 52 55 88 69 74 98 100 100 95 85 87 97 94 88 92 90 84 74 72 73 71 67 62 56 53 48 44 44 42 39 36
96 100 100 100 82 40 27 20 21 23 26 47 60 56 51 76 77 86 98 94 95 82 80 91 100 95 95 98 99 93 86 79 76 74 72 70 68 66 62 59 54 49 44 40
100 100 100 99 81 60 41 31 23 23 27 28 43 51 66 62 80 90 93 93 97 97 82 90 97 100 100 96 90 87 85 83 81 77 74 72 71 68 64 62 61 59 51 47
98 99 100 97 90 91 61 45 28 21 17 24 40 32 38 37 45 91 98 91 88 94 96 94 99 96 91 84 78 75 70 69 70 71 74 73 71 70 70 67 65 64 64 62
100 98 98 93 99 81 78 71 48 32 21 24 32 23 29 27 24 34 42 68 83 83 92 96 93 98 91 80 71 64 61 62 63 65 67 68 68 69 69 68 68 66 64 60
76 74 90 83 86 73 70 60 43 29 25 23 23 23 25 32 40 26 23 26 31 67 81 82 96 90 79 75 71 68 63 62 65 68 68 67 66 66 65 64 65 64 60 55
92 91 96 100 80 79 74 60 41 35 29 24 23 28 24 53 40 38 35 33 30 27 51 76 82 84 85 65 61 61 58 58 61 61 62 63 63 62 61 61 62 63 57 39
100 100 100 88 78 68 61 56 48 41 36 30 27 23 22 36 51 50 39 32 37 42 32 34 60 70 70 67 66 64 66 65 65 62 61 64 65 63 64 63 56 43 25 21
91 87 80 75 76 65 57 63 55 47 42 36 32 19 42 53 61 52 47 45 48 54 61 52 43 56 68 77 83 84 82 76 73 71 74 74 72 70 62 61 56 37 25 24
78 94 94 89 86 79 68 64 68 61 44 36 24 22 34 59 77 64 54 50 52 65 64 60 65 63 68 76 78 82 83 80 74 73 79 83 75 64 61 47 34 29 32 36
73 77 68 54 55 66 69 65 56 46 51 42 36 33 50 79 79 64 70 65 64 62 67 65 62 64 67 71 72 75 80 79 78 80 80 80 84 62 56 47 34 40 39 47
44 44 46 52 58 77 84 63 49 50 50 46 41 32 97 92 57 57 90 71 77 74 71 63 61 59 62 71 82 79 87 86 84 82 80 80 73 56 43 59 64 55 73 38
77 78 84 90 88 80 88 100 84 63 50 36 28 36 79 73 67 63 71 77 86 80 76 76 80 86 90 93 98 98 100 97 88 85 92 86 68 68 68 68 78 45 46 31
51 52 55 58 68 78 92 98 97 93 100 83 61 72 81 70 59 86 94 85 97 100 94 96 98 95 92 97 93 96 100 100 97 93 97 99 97 96 95 51 24 21 22 28
41 52 60 59 62 59 62 80 77 85 100 84 91 92 90 91 90 100 97 83 95 84 78 57 64 88 92 99 98 98 96 97 92 70 68 76 64 64 46 31 33 39 32 29
55 54 59 66 66 66 69 64 59 56 55 62 70 79 76 72 69 85 61 65 66 68 85 75 53 78 98 84 86 94 98 96 96 89 78 84 89 70 60 54 73 62 40 46
47 45 44 49 56 57 69 66 69 62 56 58 61 66 69 69 68 68 67 69 71 65 64 66 56 68 79 92 84 70 69 75 88 96 97 87 77 68 58 45 44 49 43 37
41 50 50 49 53 52 61 65 78 70 66 69 65 57 60 63 62 64 63 61 59 60 62 74 67 52 55 55 59 64 76 88 95 98 92 81 68 60 55 54 51 48 43 43
32 45 50 55 59 54 47 52 64 79 73 72 68 48 61 69 66 60 59 55 50 54 61 66 77 88 89 88 91 81 72 90 99 93 96 96 83 74 68 64 64 61 58 55
53 53 59 62 63 54 49 50 51 67 78 68 57 42 43 65 62 60 65 61 56 56 60 58 57 56 51 52 55 80 87 100 100 100 100 100 98 92 85 80 76 76 74 69
99 91 89 80 73 52 52 45 53 69 80 75 59 44 42 46 52 54 73 77 78 75 64 67 78 64 61 70 76 93 94 94 96 99 99 98 99 99 94 85 79 78 81 78
99 100 94 100 99 96 84 70 64 70 77 84 75 61 53 51 48 49 62 80 83 85 84 82 64 73 69 100 100 100 98 92 99 100 100 100 100 97 81 72 85 88 86 80

GFSCGP_500_rhum_078.txt.gz
RH
100 100 84 88 50 36 45 58 40 17 17 25 53 84 100 100 100 92 94 75 64 57 47 43 42 38 49 98 94 96 92 84 48 34 43 38 50 56 61 58 50 45 38 31
95 96 100 98 56 26 43 42 44 58 39 39 60 89 93 94 91 100 99 90 81 73 57 47 45 45 43 72 81 75 84 80 56 52 40 38 51 59 62 59 48 42 36 33
93 100 87 98 57 25 39 40 33 53 53 41 43 61 80 96 100 99 91 97 85 75 72 71 61 59 55 50 66 74 72 70 67 60 52 52 55 58 54 51 45 42 39 36
95 100 99 92 92 50 21 26 29 30 40 46 39 28 41 62 94 90 93 96 95 93 76 81 93 85 72 62 59 63 67 71 72 66 59 54 52 51 51 49 46 44 40 36
97 100 100 95 91 90 23 21 22 27 25 31 40 44 47 50 74 83 100 85 92 93 81 79 88 95 95 91 85 83 78 80 79 78 76 65 59 56 55 48 44 41 39 38
100 100 100 91 88 84 36 20 21 27 23 17 23 27 45 55 50 69 87 95 92 93 83 80 88 95 94 96 96 96 96 88 81 78 80 81 77 74 70 68 66 62 61 63
100 100 100 98 84 89 58 21 19 18 15 16 24 53 60 59 50 47 52 94 92 99 98 91 84 78 80 93 97 97 96 90 84 79 78 80 82 79 76 74 72 70 68 67
100 100 100 90 84 79 67 23 24 16 14 17 33 44 64 84 86 85 58 64 84 78 95 99 86 74 82 90 96 96 84 81 79 82 88 88 84 80 74 71 69 69 70 68
100 89 91 89 86 82 60 40 28 18 16 20 27 39 54 44 40 74 90 90 77 69 67 88 98 92 94 99 87 90 89 84 85 81 78 76 74 70 67 67 68 68 66 66
92 94 96 86 76 74 73 51 37 33 23 21 20 27 39 31 26 28 38 53 56 62 66 87 92 94 99 99 96 96 96 92 84 78 76 67 63 62 62 62 62 65 66 67
92 91 92 92 81 86 89 76 64 55 51 34 25 26 33 28 24 38 42 45 33 30 33 53 85 97 97 98 98 99 95 89 85 79 75 70 65 64 64 64 64 66 66 66
100 95 93 82 80 80 71 72 72 60 52 41 27 26 29 31 28 38 43 53 51 37 28 27 28 51 86 97 98 98 97 100 92 81 73 67 63 59 58 59 60 62 62 63
78 87 84 88 82 71 64 71 72 68 52 36 35 29 33 37 37 44 45 44 43 39 37 35 38 35 38 59 88 96 96 96 82 69 68 68 70 68 65 64 63 65 66 64
87 78 81 83 82 76 64 67 66 57 47 45 38 38 37 42 46 36 36 38 36 34 32 35 45 46 46 48 46 54 68 75 78 79 82 83 78 73 69 66 66 71 70 66
72 82 78 73 67 67 65 67 65 51 57 39 51 40 50 46 38 30 26 28 36 32 38 45 42 53 59 56 60 66 71 71 66 63 65 68 69 71 70 69 71 80 82 64
67 81 85 83 73 64 61 62 70 68 60 45 48 37 49 63 48 34 30 22 34 35 58 55 58 63 67 65 66 68 74 74 71 69 70 73 78 74 73 73 72 73 65 46
55 54 67 75 72 58 51 72 74 78 74 43 40 49 44 44 49 40 35 39 52 62 69 63 73 75 70 66 64 64 65 67 76 84 89 94 98 94 89 86 75 54 48 62
64 77 79 71 77 69 84 90 78 87 95 78 55 45 30 36 32 35 47 64 62 57 68 73 84 86 87 86 88 87 91 88 88 87 92 100 100 100 100 95 84 78 82 85
28 44 52 52 55 56 57 70 87 88 96 91 99 99 96 65 58 75 65 59 53 72 84 90 90 98 100 97 96 100 100 94 94 92 93 99 95 92 93 98 99 93 80 59
30 34 35 47 54 58 64 65 62 60 64 69 73 95 100 97 97 92 74 76 78 91 70 92 83 84 96 73 74 90 85 98 100 100 100 100 84 80 90 90 94 84 78 58
37 41 48 42 35 37 58 69 69 70 56 56 59 60 69 94 94 95 83 79 76 76 69 68 66 75 68 57 69 88 92 82 77 90 97 94 90 90 92 96 95 94 74 67
32 38 40 41 40 41 49 56 61 62 69 67 64 65 68 63 63 69 73 71 70 67 68 70 64 65 72 65 69 76 73 77 81 74 91 99 100 100 98 96 98 94 80 72
30 33 33 33 44 45 45 53 56 52 60 73 77 70 71 60 51 64 65 63 63 63 58 53 58 62 73 75 58 59 73 69 68 80 86 98 97 90 99 98 98 94 84 75
50 38 40 44 53 52 57 61 56 53 51 45 68 73 72 66 46 53 66 64 61 61 59 54 54 60 65 69 86 88 70 68 74 96 99 97 96 100 100 100 99 98 96 88
100 100 88 84 96 83 87 78 66 58 51 56 64 77 70 55 42 42 65 63 60 65 67 67 64 66 65 61 58 55 59 100 100 100 98 97 95 93 100 100 100 100 100 100
98 99 93 100 98 92 99 96 98 92 79 78 78 76 80 69 51 46 47 52 53 67 82 85 86 67 66 75 85 79 83 94 92 100 100 95 99 100 99 100 99 98 99 100

GFSCGP_500_rhum_081.txt.gz
RH
100 100 99 89 86 98 85 79 90 89 85 80 96 87 72 93 93 87 97 99 95 92 74 84 54 40 46 42 46 68 60 71 75 72 36 29 31 36 38 38 41 49 60 60
100 98 100 100 100 97 74 66 60 51 62 74 100 97 100 95 90 97 90 86 97 95 88 72 66 44 43 37 35 36 60 75 81 88 84 64 40 30 37 41 42 53 60 63
100 100 100 94 97 92 82 78 58 41 47 41 61 60 51 94 93 92 92 81 90 95 94 88 80 52 47 42 39 37 46 89 92 92 92 95 92 61 53 41 45 56 58 56
100 99 100 100 100 93 99 67 47 66 52 31 24 22 18 28 76 90 93 99 96 100 96 92 81 93 79 56 45 42 38 39 74 76 83 91 94 84 64 58 52 50 49 50
91 86 95 100 98 69 70 82 51 50 67 50 25 22 32 33 67 68 95 89 92 97 100 91 97 96 94 86 67 55 54 51 46 52 71 80 83 80 72 63 57 54 54 52
99 100 100 100 100 82 64 61 44 38 33 30 30 24 31 30 31 45 71 93 88 88 98 85 92 87 92 94 94 88 82 81 79 75 77 79 77 73 69 67 65 62 63 64
97 100 98 94 100 95 83 40 24 24 23 19 18 16 21 23 37 38 43 69 77 82 88 92 94 86 97 97 97 97 96 95 90 86 86 83 79 73 71 73 72 74 78 79
100 100 100 100 100 90 86 99 25 43 24 20 16 15 23 62 61 41 39 47 60 70 79 78 80 90 89 89 93 94 96 95 96 97 97 96 91 85 78 78 75 74 77 80
100 100 100 100 100 98 92 62 45 39 37 18 15 20 38 61 65 77 63 49 39 42 60 74 90 91 74 72 86 100 97 97 95 97 96 96 95 92 91 91 91 88 84 79
100 100 99 100 89 74 76 67 50 30 22 21 15 18 30 45 54 40 34 65 84 73 66 68 77 91 97 98 98 99 96 98 100 96 95 98 92 91 93 91 88 84 76 67
94 97 88 76 73 90 80 68 58 40 34 23 24 25 20 24 38 35 27 38 46 72 97 98 97 98 98 96 97 97 98 99 96 95 94 94 94 94 96 88 80 72 70 69
79 93 94 99 90 91 77 72 62 47 40 33 33 34 25 23 29 30 28 31 45 41 36 34 56 86 92 96 100 83 97 100 100 100 99 98 98 96 87 82 80 78 76 73
83 87 94 88 86 80 78 83 82 79 70 61 65 61 50 36 27 30 28 24 23 30 32 35 38 27 29 51 83 96 99 98 99 98 98 97 100 95 95 95 89 82 76 72
90 87 80 73 69 73 78 86 74 60 50 63 52 56 44 39 38 33 28 21 18 19 25 32 33 34 36 34 27 24 38 66 90 97 99 98 98 98 98 95 82 76 74 72
62 69 66 69 70 68 72 72 69 52 68 48 62 52 55 53 46 39 28 26 22 22 23 27 32 37 44 41 46 46 38 38 46 62 77 86 86 87 80 72 72 71 68 68
53 82 81 74 73 70 69 66 64 56 62 52 58 53 63 57 55 45 44 32 26 22 23 19 35 44 61 54 51 54 58 60 59 55 58 68 69 72 70 63 60 62 64 66
54 60 60 66 80 64 47 68 55 45 42 45 45 54 55 47 48 45 44 37 33 37 28 34 40 44 54 62 66 66 63 63 62 62 65 68 64 64 68 66 69 73 82 86
58 67 60 55 56 58 55 62 52 40 43 50 48 64 60 40 31 33 38 38 38 43 29 38 44 52 55 69 67 69 72 75 71 67 66 67 72 78 82 73 77 97 96 88
36 41 52 59 64 58 56 61 63 65 66 75 75 79 83 74 66 72 29 25 28 32 42 41 54 50 60 78 84 90 94 96 96 95 92 90 96 95 91 89 96 96 85 88
36 30 26 27 33 40 40 52 52 50 47 58 70 78 87 93 96 84 82 54 42 40 50 58 63 62 84 96 91 89 95 79 83 88 95 96 88 97 100 100 100 99 98 95
39 38 34 32 30 31 40 44 55 66 53 65 64 62 60 64 71 97 92 88 89 93 87 86 81 88 84 78 83 76 78 65 78 89 87 81 89 87 97 100 100 99 94 100
25 27 29 32 33 33 40 42 42 42 50 54 57 61 65 60 58 60 71 94 96 95 88 86 80 75 78 77 72 75 66 60 68 78 82 82 78 81 96 96 100 100 100 97
52 45 30 30 33 35 32 34 42 44 44 51 53 54 63 69 65 69 64 62 70 78 79 77 79 68 69 71 65 66 70 60 60 58 57 62 70 79 91 94 100 97 96 99
86 70 71 78 74 48 34 35 39 42 57 57 50 47 44 53 69 71 70 51 59 68 67 65 64 62 54 53 58 62 72 80 77 82 88 90 87 98 93 90 90 100 99 100
100 98 100 95 100 99 98 95 94 88 74 67 63 55 45 45 67 70 65 46 46 60 65 61 63 63 59 55 59 62 63 66 75 68 59 79 81 99 100 97 96 99 100 100
65 78 77 94 97 98 100 100 100 100 100 98 95 84 63 58 63 74 66 51 44 50 63 60 68 73 76 70 68 73 70 68 65 59 90 100 95 99 100 94 98 100 98 99

GFSCGP_500_rhum_084.txt.gz
RH
100 100 90 98 59 89 95 100 83 76 98 100 97 97 88 61 50 34 39 65 85 93 92 86 53 48 64 94 59 54 60 56 52 70 81 53 28 26 24 23 26 28 37 45
100 100 99 99 88 89 99 98 99 99 98 97 98 98 81 56 49 46 54 86 84 93 94 90 94 78 61 50 82 76 88 50 68 85 83 69 68 56 33 29 33 38 38 40
100 100 100 93 77 100 94 98 100 80 97 94 100 94 76 53 40 41 63 64 86 90 86 99 98 94 93 77 60 58 65 82 72 75 83 85 80 86 87 70 47 47 48 52
100 100 97 100 85 90 83 80 99 81 82 96 99 91 92 97 80 58 56 68 77 72 81 80 93 97 94 88 85 61 48 50 64 60 65 86 96 96 98 95 96 70 72 66
100 100 99 98 100 100 100 90 85 91 90 78 82 67 51 59 59 60 92 100 89 62 73 75 81 97 92 95 95 86 58 50 44 36 38 44 80 86 92 95 93 95 89 75
100 97 88 81 87 96 100 100 88 80 88 86 49 36 32 24 47 20 16 48 86 78 80 84 64 87 88 94 94 95 87 64 60 49 45 43 42 50 64 81 81 76 69 67
79 85 89 86 94 88 92 100 99 90 78 57 46 35 28 16 13 16 21 33 40 70 92 85 66 65 82 89 97 95 93 95 74 65 69 67 68 77 73 75 72 68 62 63
83 79 85 93 100 95 92 94 86 82 61 45 30 26 24 21 16 15 14 17 25 46 58 88 76 60 74 88 95 94 95 94 96 95 90 85 80 77 76 77 69 64 58 64
90 83 89 96 98 99 77 74 75 47 39 32 29 21 18 18 18 31 44 48 43 39 42 56 73 56 70 86 89 100 98 97 97 96 96 94 95 97 98 96 96 92 84 80
75 82 91 100 100 100 100 78 69 47 40 32 45 34 20 21 47 55 56 47 47 67 52 50 57 71 70 99 100 92 96 100 96 95 92 93 94 97 97 96 97 98 97 92
98 93 96 98 100 100 100 100 89 85 48 47 53 32 16 22 34 40 44 40 29 34 71 89 81 56 48 65 83 85 83 95 93 81 79 87 97 96 96 98 97 96 94 90
91 91 89 100 95 97 100 88 76 66 57 37 30 29 23 18 20 21 23 33 28 26 41 42 73 94 91 89 94 87 97 91 92 93 89 85 96 97 92 96 97 97 96 96
70 72 90 92 90 89 99 97 88 69 60 52 44 44 39 30 26 30 28 24 27 24 25 35 42 39 54 75 96 100 96 99 93 99 96 92 97 96 90 88 95 97 97 96
76 65 68 70 74 82 89 94 88 72 71 83 67 78 59 51 62 56 48 26 23 24 23 21 23 33 39 39 35 36 45 61 78 97 98 96 95 99 99 99 99 98 98 99
64 65 67 75 76 72 71 69 67 56 75 51 72 61 76 66 59 52 41 26 24 24 24 24 24 25 29 32 30 29 30 39 41 38 39 51 76 94 97 96 96 97 95 94
54 76 79 58 59 66 64 66 69 70 74 62 64 49 71 61 59 58 46 36 33 33 33 30 26 23 21 26 35 40 44 39 36 48 57 61 66 67 71 75 78 78 77 70
47 48 46 54 69 63 59 81 80 72 64 62 46 48 49 44 48 47 46 48 48 47 44 47 33 28 22 23 23 35 43 51 46 45 52 61 63 65 69 69 68 63 60 57
33 43 46 45 49 43 50 60 64 55 56 58 44 37 36 39 39 54 43 28 31 34 38 38 36 36 36 25 30 44 49 66 62 62 64 65 64 64 63 61 60 66 66 67
29 33 35 40 48 49 52 43 53 46 50 44 47 46 49 48 51 59 58 45 24 23 27 35 38 38 38 32 55 54 58 68 72 76 79 86 86 82 83 84 83 82 77 74
36 46 44 38 33 29 30 48 53 50 47 51 49 47 44 47 64 66 69 77 66 65 42 33 33 35 43 63 62 58 79 86 92 86 99 91 84 85 97 90 77 74 83 91
40 39 40 40 37 32 34 47 52 50 46 52 63 66 61 57 50 55 62 68 77 83 87 69 55 45 56 79 83 76 94 88 86 90 88 76 86 88 83 84 84 94 98 89
71 66 53 46 32 26 30 34 41 40 42 44 44 46 54 56 59 63 60 56 56 57 81 97 99 100 98 95 90 78 78 76 80 78 67 62 72 84 85 81 79 85 87 88
98 96 92 90 72 72 63 40 36 41 38 42 52 50 49 53 55 58 67 67 66 67 64 80 87 100 100 100 90 86 93 94 74 67 70 64 67 62 58 68 74 82 87 85
35 62 68 72 100 97 97 96 99 68 41 44 43 52 64 60 53 56 56 68 71 74 65 58 62 70 71 70 73 71 66 66 66 65 68 75 66 78 85 85 89 100 98 94
12 17 22 26 54 27 42 56 89 98 100 100 90 82 77 75 67 58 53 53 71 72 71 52 62 70 69 67 64 62 57 53 55 62 70 76 87 86 64 70 75 83 93 95
8 11 14 13 12 10 11 38 98 87 100 100 100 100 100 98 87 69 62 65 82 72 57 46 45 63 65 63 67 67 65 60 61 63 63 62 62 58 90 100 93 91 100 90

GFSCGP_500_rhum_087.txt.gz
RH
89 100 90 96 100 92 88 95 97 98 97 98 99 96 96 98 91 74 55 32 30 32 30 28 23 48 70 74 57 81 86 94 89 75 66 56 51 67 55 20 16 21 27 28
87 100 100 100 100 95 100 100 99 99 100 97 98 96 100 97 98 86 67 44 33 31 31 31 24 27 84 83 86 67 80 87 86 76 72 74 63 70 82 63 58 46 42 35
52 100 100 100 91 97 96 96 93 99 99 97 98 97 92 76 71 72 66 47 36 34 37 30 42 43 79 92 96 69 83 94 88 82 88 83 81 84 89 85 71 68 49 41
64 64 97 93 91 91 94 99 99 93 96 98 97 97 86 94 93 76 61 51 42 37 31 29 44 64 79 74 96 90 71 84 92 94 96 96 96 98 97 96 97 96 96 96
100 79 93 81 78 60 59 77 86 100 100 100 98 98 100 76 67 62 53 43 35 29 28 28 57 90 89 82 83 100 96 95 95 90 87 92 94 95 86 81 89 96 94 94
95 96 82 68 72 68 48 73 98 100 99 93 82 84 93 66 68 52 42 33 33 34 35 34 28 60 73 92 91 100 97 96 94 96 96 80 66 63 52 45 47 72 89 85
83 99 91 80 87 73 98 96 93 98 99 83 77 67 64 64 58 41 42 52 35 15 15 29 45 44 48 74 89 96 95 95 98 97 97 80 70 67 54 48 51 60 65 70
71 73 76 86 90 95 98 86 89 80 68 69 62 55 57 47 39 30 22 26 28 14 14 18 39 66 58 57 86 92 92 94 96 97 96 98 99 71 61 63 62 64 61 68
55 59 59 68 74 97 97 90 83 76 73 78 64 52 44 40 34 25 19 15 14 13 12 12 19 43 70 70 80 79 75 84 90 98 98 97 98 98 98 84 82 89 85 86
60 62 67 70 71 78 86 81 79 85 89 82 66 46 35 24 18 16 19 24 28 26 21 17 17 32 52 59 72 78 66 79 90 90 97 96 95 97 96 92 99 99 95 95
56 67 68 76 85 86 83 87 78 74 74 67 58 39 34 22 19 25 42 47 41 39 39 44 50 44 53 60 67 76 76 77 93 96 100 99 98 98 87 96 90 93 88 96
72 70 80 88 82 91 100 94 87 72 60 49 47 46 43 31 19 25 36 40 38 35 31 24 25 40 75 70 72 84 89 92 100 98 96 90 85 88 86 78 86 89 95 95
70 73 69 64 75 82 86 92 96 92 89 80 64 47 41 37 25 23 22 23 24 21 25 28 21 32 42 52 84 91 100 89 97 98 94 89 100 99 99 98 97 95 94 98
46 58 63 73 84 84 85 92 90 78 76 69 58 58 48 46 43 40 34 18 19 23 26 25 24 22 23 34 44 49 80 93 98 97 97 96 97 98 98 98 97 97 95 89
52 86 68 62 75 80 88 90 82 73 90 70 89 66 75 69 61 60 56 48 29 44 47 30 30 29 24 24 33 33 34 39 43 54 58 62 44 36 52 52 64 84 94 95
66 70 88 96 78 70 70 87 81 79 82 72 75 58 86 76 61 59 58 55 51 49 44 40 34 32 30 26 22 21 26 26 28 30 29 26 25 25 34 51 57 50 48 56
47 54 50 56 66 73 89 94 79 89 97 91 72 90 76 62 56 57 58 55 47 42 42 45 45 46 44 40 34 25 24 26 36 38 38 40 43 44 48 61 66 66 65 65
28 29 36 40 42 44 47 59 69 86 97 92 77 72 73 58 48 47 46 42 43 39 32 27 29 36 41 40 39 36 35 29 34 39 43 49 55 59 63 64 65 66 65 63
28 28 28 28 30 31 36 45 60 66 66 56 53 51 53 58 58 66 56 50 51 45 44 51 31 25 34 40 40 37 38 41 44 46 46 57 62 71 79 78 78 82 85 84
46 42 36 32 28 30 37 40 37 33 42 59 58 56 54 53 51 54 52 58 72 65 60 72 69 43 36 32 40 46 46 58 67 55 60 79 86 81 90 93 80 82 95 90
52 61 69 68 63 54 41 39 36 40 40 45 46 46 50 52 50 51 53 47 51 62 69 74 89 94 84 66 54 40 41 54 55 58 86 94 82 83 87 79 82 86 82 82
22 47 75 88 87 86 82 78 66 49 32 33 40 43 46 42 40 42 56 57 56 54 50 53 58 75 100 98 97 96 98 100 100 100 100 91 82 74 63 62 78 81 83 80
10 10 12 14 24 22 25 25 38 67 81 97 67 45 40 43 51 48 48 51 55 61 65 61 61 62 72 100 100 100 99 100 100 89 85 80 77 72 69 65 69 63 62 69
10 10 11 11 12 13 12 12 12 11 12 20 74 96 95 55 47 50 59 60 59 65 73 73 68 68 67 64 71 85 94 97 100 99 86 84 77 68 68 72 63 71 86 83
13 14 15 18 23 22 16 15 13 16 16 11 66 58 85 100 99 77 77 75 64 61 54 69 76 77 69 56 67 71 70 69 67 66 62 57 56 60 70 80 89 93 73 71
19 21 24 28 34 37 40 33 24 22 15 8 21 89 35 100 100 100 100 97 79 65 58 60 78 68 65 52 56 67 66 65 68 67 66 64 62 66 69 70 69 64 76 100

GFSCGP_500_rhum_090.txt.gz
RH
100 80 80 97 100 94 89 96 97 100 91 97 100 99 97 97 82 61 62 53 35 29 29 31 36 44 53 42 45 48 64 82 90 95 96 98 93 77 63 58 58 54 41 24
95 100 100 73 98 91 91 97 94 100 100 100 99 99 98 88 81 68 60 60 50 35 33 29 28 30 35 50 58 65 90 88 84 92 76 89 81 67 66 54 48 58 67 40
67 94 100 100 56 86 68 87 96 99 99 94 100 92 70 98 96 88 74 65 58 58 40 31 30 30 31 31 30 29 50 91 81 93 82 76 86 79 75 78 85 81 95 95
99 45 86 100 91 95 85 84 94 98 100 98 96 98 97 96 94 90 76 64 62 56 54 32 30 31 32 34 35 34 32 57 82 89 96 86 80 76 92 80 94 95 96 96
100 98 54 65 100 94 96 99 98 100 96 99 99 95 98 94 78 69 64 72 66 50 41 36 32 33 38 40 33 30 38 55 68 71 96 91 92 97 95 97 98 97 96 95
88 89 78 83 82 97 99 100 97 98 100 99 97 97 94 75 76 80 80 67 58 60 54 49 42 38 39 28 24 35 47 62 85 84 90 86 94 89 89 91 96 95 94 93
44 48 53 51 59 75 97 100 100 98 100 92 94 95 76 90 66 68 72 66 57 50 41 34 27 26 28 26 24 29 63 71 87 94 79 96 98 92 96 95 95 94 93 77
91 62 60 65 65 46 40 70 96 99 98 79 95 87 86 88 81 76 72 59 56 46 34 28 23 20 18 20 37 33 37 64 69 89 98 94 98 98 97 96 94 95 90 88
62 63 74 83 71 100 53 44 65 99 93 84 79 84 80 66 68 67 60 49 38 28 29 35 28 16 16 17 22 39 48 50 72 93 95 94 98 98 98 97 96 92 86 76
62 62 58 58 70 82 99 95 75 67 70 65 58 59 57 58 48 48 44 37 29 24 16 15 13 13 13 12 14 30 59 66 64 83 87 80 93 96 98 97 100 98 96 96
64 59 60 52 49 59 84 80 81 69 62 56 55 53 55 49 36 30 27 28 26 23 17 19 21 16 18 24 17 16 48 69 92 79 68 76 80 89 92 98 97 97 97 84
50 67 68 71 70 69 75 85 89 81 74 70 64 61 58 46 35 28 19 16 21 40 34 30 30 33 32 36 45 41 32 54 61 75 82 70 88 98 97 90 90 98 98 97
59 62 71 77 79 81 82 83 90 97 74 75 67 60 58 42 41 34 23 25 32 44 39 32 29 29 23 22 33 44 67 63 57 73 80 81 83 87 100 98 97 96 97 98
55 57 62 65 70 79 80 80 87 90 91 79 73 72 82 74 57 45 36 27 25 25 25 25 28 28 26 24 21 32 46 49 67 80 84 95 99 89 96 94 89 93 97 96
57 60 58 76 65 72 77 74 72 77 84 76 97 85 84 76 64 51 42 34 23 25 26 30 42 45 38 25 24 21 23 35 39 42 55 67 87 91 95 91 94 80 81 70
34 48 59 67 65 68 77 78 77 80 74 74 85 81 99 94 71 64 55 54 52 47 47 52 51 48 46 30 27 24 24 22 27 30 35 37 43 43 39 34 32 30 30 29
26 35 44 46 50 62 78 84 83 91 88 81 70 90 94 76 61 50 50 52 53 51 47 52 51 49 46 41 38 36 28 25 24 24 26 30 33 37 34 33 28 28 29 35
20 21 22 25 31 37 46 49 52 57 64 66 76 93 97 90 82 74 65 50 43 40 39 40 40 40 46 47 46 47 45 40 34 30 30 29 27 29 32 34 35 35 41 46
33 36 33 26 24 24 24 27 33 36 45 57 63 64 77 94 92 75 69 60 50 42 38 34 30 30 31 28 39 44 41 43 43 42 41 41 38 41 50 44 51 56 58 69
12 28 36 52 51 56 52 48 40 32 31 33 34 36 46 56 59 64 58 54 53 53 52 50 50 54 54 60 51 38 39 46 45 43 40 40 50 62 56 58 65 80 80 92
7 8 9 10 16 34 43 67 72 70 59 41 35 36 39 44 45 49 56 54 52 52 47 44 57 70 74 77 88 86 73 47 43 44 47 50 62 71 69 76 89 79 90 81
9 10 10 12 12 12 12 12 14 18 31 47 61 70 71 60 37 41 46 50 49 56 62 61 56 59 62 71 90 100 100 94 69 54 52 56 65 77 84 97 91 76 65 64
10 11 12 14 14 16 18 20 18 14 14 14 12 12 12 14 35 92 46 42 44 45 46 49 53 60 66 62 62 86 100 100 100 100 100 100 100 100 100 100 96 86 73 68
12 15 18 21 21 24 28 30 32 34 34 28 20 17 17 18 17 12 93 88 44 49 53 48 52 54 59 70 70 70 74 98 100 100 100 100 100 98 100 100 100 93 78 70
15 17 20 27 32 36 42 42 43 41 33 27 24 14 10 9 8 29 38 65 95 81 64 65 61 60 66 74 77 81 68 65 77 94 98 98 96 97 96 84 76 70 72 78
19 18 21 22 24 26 30 31 28 25 19 16 14 12 9 21 30 100 100 60 91 100 95 79 76 67 62 63 73 78 74 61 72 73 73 73 71 70 70 72 68 69 73 79

GFSCGP_500_rhum_093.txt.gz
RH
88 88 100 100 81 57 28 45 81 80 100 99 94 95 92 98 84 65 50 52 48 47 44 68 94 95 95 79 95 96 97 94 90 94 96 93 95 96 97 96 90 74 69 68
100 100 92 96 95 48 34 68 68 85 99 94 96 96 81 87 84 81 57 40 46 48 50 45 42 58 77 94 91 98 94 94 90 89 94 82 81 87 95 93 95 87 64 58
100 79 66 54 55 50 36 76 59 87 99 99 97 98 86 74 70 71 71 63 47 42 55 45 42 31 42 58 54 71 79 90 82 86 83 93 90 86 95 82 69 80 86 84
100 87 100 90 38 43 47 67 72 87 99 96 97 98 98 99 97 71 72 67 60 47 51 62 41 32 32 32 48 57 62 74 78 96 100 84 73 91 92 75 80 63 74 91
100 100 100 91 89 68 70 79 90 94 88 99 99 97 100 91 86 68 64 68 67 60 53 49 50 51 43 35 32 31 52 65 70 66 92 96 88 75 95 89 93 97 84 80
71 84 98 92 62 76 63 72 91 92 90 99 100 100 98 81 97 94 79 62 54 60 59 56 54 47 46 41 31 30 35 36 44 59 72 53 88 96 94 96 91 96 96 97
70 70 70 75 47 97 100 88 88 96 100 94 98 97 95 100 99 88 83 64 62 63 66 58 56 52 47 46 38 34 35 38 36 29 42 58 80 98 88 94 97 97 96 96
62 79 88 81 96 100 100 96 92 94 74 75 92 89 85 94 92 78 71 60 53 45 43 48 54 48 44 42 38 36 28 24 19 20 34 46 58 71 94 96 96 97 96 96
82 64 71 79 82 96 96 96 100 98 97 73 74 79 83 81 82 67 52 45 47 57 59 54 53 50 43 40 33 24 21 18 14 14 14 24 69 47 62 75 94 97 97 97
63 69 79 68 95 76 60 58 97 100 100 73 70 83 98 91 98 87 86 74 70 60 51 42 34 31 28 26 23 22 21 19 18 18 20 19 21 42 51 71 84 96 94 96
56 45 49 63 61 80 60 38 40 70 81 88 71 70 82 90 96 90 84 79 62 51 45 40 36 31 27 27 24 16 15 14 14 14 17 26 27 45 49 70 72 82 97 98
51 62 60 60 66 85 98 98 87 77 72 62 70 65 78 78 65 79 44 46 43 42 41 34 27 24 21 15 14 15 18 18 15 15 15 19 34 54 76 70 88 94 100 96
54 53 60 62 59 61 60 61 70 63 58 63 68 72 73 77 69 51 40 33 28 27 25 23 25 28 29 29 27 24 22 23 27 34 35 26 36 56 69 82 86 80 78 97
48 46 48 54 49 44 49 55 64 70 79 83 77 78 83 81 74 59 42 35 25 21 23 30 42 40 35 31 29 27 22 18 21 24 33 59 64 56 65 66 77 82 82 81
28 34 34 39 59 59 56 62 72 75 80 80 97 77 80 72 68 63 47 40 33 24 24 29 30 32 28 25 24 25 24 24 20 18 20 28 36 61 78 74 90 88 92 74
19 22 28 36 50 53 57 55 53 57 63 64 64 69 94 84 71 72 63 57 48 45 39 35 31 31 29 26 28 30 31 31 26 23 20 19 24 29 36 49 54 53 49 50
15 16 18 21 27 37 41 37 48 57 62 61 60 71 83 76 68 66 69 70 74 72 62 58 51 47 45 43 42 42 43 42 29 25 24 22 22 22 24 23 23 26 28 28
21 20 20 17 16 20 20 26 25 25 26 28 33 38 47 63 74 72 68 59 50 54 52 48 48 54 60 60 57 52 49 44 36 32 30 28 26 25 23 24 25 27 30 32
7 9 14 18 26 22 22 27 30 29 26 23 22 25 30 42 53 76 81 81 77 67 62 57 46 40 41 45 52 52 49 49 48 46 43 38 36 36 35 33 32 30 32 40
7 7 7 7 7 7 8 11 13 16 43 48 47 41 34 31 32 40 56 60 69 78 70 61 57 50 40 36 35 34 32 32 32 36 46 45 41 41 41 42 43 44 43 46
8 8 8 10 10 10 12 12 10 9 9 9 13 29 47 42 44 39 38 41 46 56 61 61 57 53 48 46 43 46 50 42 49 40 33 33 46 50 48 46 48 48 63 63
9 9 10 11 13 13 17 18 17 17 16 14 12 12 13 11 13 14 20 41 61 40 47 51 53 54 54 51 47 50 70 81 72 68 56 62 58 53 53 50 51 54 67 70
11 11 12 14 16 19 20 20 18 20 22 18 15 13 12 18 20 19 17 17 20 20 34 49 50 50 54 66 61 59 61 66 74 90 93 92 74 67 63 68 72 80 85 99
14 15 14 15 17 18 18 17 16 17 16 17 18 17 17 17 15 18 19 19 14 14 16 74 60 47 55 57 58 60 69 68 68 95 100 98 99 99 98 99 100 100 100 99
21 20 21 18 18 18 20 17 15 18 20 22 23 20 19 16 12 13 12 12 12 12 22 99 100 57 55 64 61 61 68 79 78 79 91 98 100 94 96 100 99 100 100 100
29 27 25 21 20 20 21 23 23 22 23 21 19 15 13 9 10 19 73 63 23 12 69 71 84 100 80 70 72 72 76 83 82 83 74 68 82 100 100 100 98 96 92 91

GFSCGP_500_rhum_096.txt.gz
RH
98 100 100 90 96 80 69 56 22 65 100 99 98 98 100 86 73 75 68 67 72 78 93 94 92 94 96 95 97 96 95 95 96 95 97 97 96 96 95 97 90 89 92 81
79 98 100 100 93 68 65 55 31 74 95 100 99 97 97 83 69 59 62 72 70 63 70 74 87 94 96 96 95 94 91 93 95 90 95 98 89 97 95 100 96 96 94 96
85 87 78 98 81 63 60 51 39 54 90 97 100 93 98 90 78 62 57 70 69 66 67 60 60 72 93 84 91 94 90 91 90 90 91 92 93 96 95 94 92 85 89 85
100 85 82 100 58 56 48 44 38 70 100 94 100 94 97 97 89 66 58 66 74 78 62 62 56 53 56 70 96 97 88 95 86 96 92 90 97 96 96 96 95 95 92 82
96 98 83 83 63 55 39 38 45 93 91 97 99 99 95 97 74 74 82 78 76 82 82 71 60 49 46 46 50 62 70 96 95 88 89 95 87 87 84 96 96 96 96 95
100 99 100 42 37 41 48 71 80 96 93 99 100 84 86 84 98 100 99 92 84 83 89 84 75 61 60 60 61 50 38 36 43 57 61 68 76 74 82 92 92 96 96 96
98 94 88 82 60 59 58 53 96 89 86 94 96 93 99 89 97 97 98 85 71 76 77 77 72 61 56 69 62 57 57 48 37 30 44 48 66 49 37 55 69 58 89 96
90 100 97 76 84 72 59 51 67 65 78 83 87 99 98 88 97 92 89 84 86 79 72 74 76 78 75 60 54 51 60 58 51 40 33 39 38 39 28 38 38 69 80 64
75 98 93 87 92 100 97 59 63 79 73 94 75 89 99 100 100 98 88 81 84 89 83 89 84 79 67 58 55 52 52 48 44 40 37 33 28 21 16 22 31 54 62 63
71 69 90 99 100 98 100 100 91 76 67 73 69 67 83 94 97 100 95 92 85 87 69 66 64 69 76 71 62 55 50 46 43 36 26 21 17 15 14 14 18 40 62 70
67 70 79 86 91 75 92 100 84 83 73 82 76 82 100 98 96 95 89 80 74 70 70 63 58 54 53 55 49 44 40 34 30 24 21 21 20 17 16 15 17 21 32 30
69 68 64 71 79 73 43 39 45 70 74 78 71 74 74 82 98 86 81 70 69 57 49 56 54 52 44 38 35 33 31 30 28 27 23 18 16 16 17 15 14 15 34 56
44 48 57 70 54 60 55 60 60 47 44 41 40 41 50 56 57 75 81 82 80 78 73 60 52 47 44 42 38 34 30 26 25 23 18 16 18 20 18 15 14 13 22 30
38 36 39 45 42 39 40 46 50 55 56 62 64 63 59 61 57 47 43 48 60 64 63 46 44 41 39 36 31 28 25 24 23 21 19 19 17 15 14 17 25 30 30 35
23 23 23 23 26 25 26 28 30 36 44 55 65 66 65 57 48 51 54 45 46 47 50 41 28 24 24 27 29 30 29 28 26 25 23 18 16 16 16 16 16 20 70 94
16 18 19 18 19 17 19 24 30 34 36 41 41 52 50 53 58 66 71 68 60 60 48 37 30 26 25 31 42 41 37 33 29 26 24 23 22 23 20 17 17 17 24 46
13 14 15 16 18 16 20 22 24 24 20 24 26 36 44 44 42 46 51 55 67 73 67 55 50 44 36 31 31 31 32 33 32 26 24 25 28 30 26 23 22 20 20 19
5 6 8 10 12 12 9 13 15 14 14 14 14 16 18 21 27 33 35 41 49 58 66 84 94 89 78 65 57 46 36 31 31 32 31 38 39 36 31 27 25 26 24 22
6 6 6 6 6 6 5 6 6 7 6 6 8 15 24 30 36 34 28 27 38 43 49 61 68 79 96 100 94 90 84 68 58 57 53 50 46 37 34 32 32 31 31 32
9 9 9 8 8 8 7 6 6 6 6 7 6 5 6 6 6 18 31 36 36 31 44 62 74 80 73 78 73 63 51 55 57 62 59 51 50 50 48 45 43 42 40 41
10 10 11 11 11 12 10 9 9 9 8 8 8 9 9 9 8 7 8 10 12 18 48 44 41 54 73 88 84 67 62 54 55 46 41 35 32 28 30 35 44 49 49 48
11 12 12 13 14 15 14 13 13 12 10 10 10 10 11 11 11 11 10 10 19 34 26 16 29 57 46 51 66 71 65 66 59 54 46 40 39 43 42 44 50 45 47 50
14 16 17 17 18 17 16 17 17 15 14 15 14 14 14 13 10 11 12 15 16 19 20 27 29 24 21 39 51 51 62 63 62 56 48 44 54 67 76 73 79 72 59 60
21 23 25 25 25 21 19 21 20 20 20 20 21 18 17 13 10 8 12 15 13 12 11 13 15 21 20 16 18 50 52 58 69 68 53 50 59 80 83 85 92 85 70 69
30 32 33 33 32 29 26 24 25 26 26 27 26 20 18 12 10 8 9 8 22 59 56 26 13 12 13 14 34 75 54 57 62 69 65 68 69 74 94 100 99 100 96 98
42 41 40 41 42 41 36 34 33 32 30 30 27 22 17 12 11 8 7 11 88 84 92 97 56 12 12 27 100 100 66 67 69 70 68 78 81 80 89 99 96 97 93 90

GFSCGP_500_rhum_099.txt.gz
RH
90 95 100 97 97 96 100 70 50 51 49 24 74 94 98 90 81 84 100 96 97 97 87 95 96 91 97 96 97 97 96 96 96 96 94 95 96 93 95 95 95 89 72 66
98 98 93 96 84 90 100 76 74 57 58 30 75 86 99 95 87 85 98 94 96 94 88 96 95 96 96 96 97 97 97 91 95 96 97 91 95 96 96 93 92 84 89 82
100 100 100 100 74 100 94 61 63 53 58 47 78 98 99 99 69 72 81 93 96 97 96 97 97 94 96 96 97 98 96 96 94 95 94 85 92 96 96 94 94 96 89 88
76 100 98 100 82 94 89 48 79 65 59 97 98 99 95 97 81 77 80 83 96 93 95 90 93 93 90 95 87 93 95 95 95 97 95 92 94 95 96 96 95 98 98 94
78 100 96 91 63 68 56 67 97 80 74 98 99 100 98 99 97 66 84 86 78 78 90 97 93 95 97 94 92 93 94 95 97 94 94 94 97 96 95 96 94 93 96 97
100 94 89 56 50 50 49 74 98 100 72 89 100 99 100 95 96 98 97 94 85 80 92 91 77 81 74 60 64 80 81 94 91 69 70 66 90 87 93 95 94 96 95 96
97 76 79 62 51 57 58 58 88 71 82 94 98 100 98 100 95 89 87 81 95 98 99 96 88 80 68 51 46 50 49 52 66 56 45 40 54 53 64 79 65 92 77 78
100 100 95 78 87 76 76 84 83 72 97 100 100 100 99 96 88 88 80 100 100 99 92 92 83 72 79 76 72 65 60 58 58 52 46 49 48 44 42 45 44 40 27 41
85 84 100 95 98 82 59 53 68 64 90 96 97 93 100 98 99 92 98 90 85 89 99 85 82 96 90 81 77 71 68 57 50 45 47 49 54 50 44 42 36 36 18 16
96 98 100 100 100 76 75 40 56 74 73 82 88 75 65 99 96 86 94 96 95 79 77 76 85 90 83 76 70 77 72 64 52 49 52 60 58 46 40 34 24 20 16 14
83 92 89 98 99 98 100 80 55 65 62 66 68 62 58 53 79 96 93 77 72 68 64 62 80 86 86 84 89 86 77 69 63 55 50 47 44 40 32 26 19 17 16 14
58 78 77 69 85 96 91 92 82 64 46 51 57 68 72 63 60 60 52 76 86 87 77 76 76 80 82 74 72 67 67 69 65 58 52 43 35 31 24 21 20 18 17 15
50 48 62 57 46 58 53 42 62 66 69 72 67 62 59 59 61 65 72 66 56 61 71 72 70 69 72 70 62 60 60 53 46 39 35 32 29 27 26 25 21 17 16 19
35 34 35 36 35 35 34 32 33 33 31 29 31 31 31 29 28 29 33 39 51 75 86 89 88 77 67 67 62 52 46 43 40 37 35 32 28 26 23 20 18 20 18 15
19 21 23 24 25 25 23 21 21 22 24 26 32 34 32 28 24 22 24 24 29 35 36 51 64 78 76 64 50 46 45 42 40 36 32 29 27 26 24 23 20 17 16 15
15 15 15 18 17 16 14 13 12 14 17 18 21 23 23 21 24 29 33 34 31 31 33 40 38 45 54 72 81 64 34 30 32 35 36 34 32 29 27 25 22 20 20 18
7 8 9 9 10 8 9 10 11 11 11 10 10 11 12 13 14 15 16 18 24 30 33 39 50 54 61 59 42 36 46 42 28 30 36 39 36 31 28 26 24 24 26 25
6 5 5 5 6 6 6 5 4 4 5 5 5 5 6 8 8 8 8 10 13 18 20 27 41 46 50 60 65 59 51 43 34 29 33 36 39 33 27 26 25 25 28 29
10 9 9 9 11 9 8 9 10 11 12 11 12 12 13 8 6 5 6 6 7 9 14 26 32 25 35 66 74 74 83 73 72 60 48 40 31 29 28 29 29 27 25 29
12 13 12 12 13 14 16 15 15 14 9 16 13 11 9 9 11 14 12 8 7 8 10 9 6 9 28 42 44 79 96 100 100 98 85 76 65 46 45 48 48 49 44 43
11 12 14 14 14 14 15 13 13 14 16 16 15 16 17 16 19 22 22 18 16 12 11 10 9 9 19 29 22 37 47 85 100 100 100 99 87 79 68 58 55 52 51 51
14 16 18 20 18 18 21 17 17 17 16 17 18 18 20 22 21 22 23 19 15 11 11 10 10 14 22 27 33 31 29 60 62 99 100 100 69 52 49 47 45 43 43 39
19 24 26 27 30 29 29 26 24 25 25 26 26 26 29 34 36 33 28 18 15 15 10 8 8 8 8 10 20 23 27 25 63 62 98 100 99 71 56 53 51 50 50 44
35 35 37 37 36 38 39 39 39 37 38 37 39 38 38 44 43 37 24 17 16 10 8 10 38 38 50 42 15 13 22 26 30 61 66 96 100 90 63 57 57 63 61 70
40 41 42 43 42 43 44 46 48 49 48 49 51 50 51 51 40 27 18 17 14 9 8 49 81 77 80 73 74 12 14 29 21 17 49 68 89 88 71 64 61 66 81 85
42 40 43 46 46 47 48 50 49 50 51 49 54 56 55 49 37 22 19 19 12 7 20 72 95 87 90 97 79 13 14 18 14 16 37 68 67 74 79 93 96 72 72 80

GFSCGP_500_rhum_102.txt.gz
RH
97 94 70 72 98 89 100 96 97 70 65 48 36 30 37 52 93 98 91 85 76 96 97 97 98 98 99 95 94 96 96 95 93 96 96 98 92 95 80 93 94 79 24 39
100 99 98 90 55 97 100 100 86 92 58 39 38 25 31 62 96 100 94 89 79 91 97 97 96 97 96 97 95 95 96 95 95 97 97 96 97 96 92 95 94 60 51 75
100 100 86 63 53 100 88 99 82 97 72 50 30 28 52 94 98 88 95 83 85 93 97 96 97 96 96 96 96 96 97 97 97 96 93 94 96 92 98 96 95 95 96 97
80 90 57 88 100 95 99 92 85 73 71 77 44 65 89 100 99 70 84 79 95 94 96 97 94 97 95 97 96 97 97 96 96 96 89 91 94 93 96 95 94 97 97 96
75 72 52 95 95 94 100 80 60 64 100 84 45 99 97 92 91 69 78 85 98 97 98 96 97 97 97 96 94 97 97 95 97 96 96 96 96 97 97 97 96 97 96 97
96 86 84 86 83 81 93 87 100 100 100 92 84 89 100 100 82 71 77 91 97 95 97 98 95 93 93 96 97 97 98 94 98 96 96 97 96 96 96 97 97 96 96 97
100 100 52 41 53 81 100 100 93 100 99 96 98 100 100 98 98 97 86 81 88 95 91 92 94 92 89 90 88 89 89 90 85 86 90 88 85 94 95 96 94 94 96 96
100 94 100 84 63 69 82 100 100 100 94 94 98 97 99 88 81 94 65 73 79 95 96 90 90 97 95 95 92 88 76 74 59 64 68 65 86 79 76 54 80 68 70 65
92 98 100 100 68 68 79 95 95 86 93 96 99 100 100 100 98 91 97 99 98 87 91 97 97 98 90 88 89 93 87 73 67 67 62 56 60 58 58 54 54 47 47 50
98 98 99 89 78 70 66 80 80 83 95 80 76 80 98 99 98 99 98 93 93 88 90 92 93 76 69 73 73 78 82 92 82 76 68 63 56 49 49 52 52 52 48 42
85 97 97 87 66 56 52 51 66 59 68 68 54 51 46 71 90 79 75 92 99 96 96 89 78 66 70 75 78 79 78 82 84 78 68 62 51 47 52 60 64 56 44 37
86 93 97 95 97 88 72 71 60 57 52 58 47 42 39 36 34 34 36 41 69 80 83 76 74 64 66 70 79 81 76 73 80 78 75 68 59 55 50 47 45 42 36 28
79 72 60 85 98 100 89 76 63 55 51 44 38 37 36 31 30 28 32 36 42 40 34 34 34 43 55 61 65 68 75 76 74 66 64 66 68 63 57 50 40 32 24 21
55 56 57 51 47 50 54 42 38 31 18 26 24 25 23 22 21 21 22 25 23 24 22 24 29 41 52 58 58 63 59 60 60 60 62 59 54 49 42 36 33 30 29 27
32 39 36 33 32 30 26 25 24 20 20 16 16 16 16 16 16 17 16 15 14 13 12 14 18 24 28 32 45 61 69 71 70 66 54 47 45 41 38 35 33 29 26 24
15 18 19 18 18 16 17 16 14 11 10 8 9 12 13 12 11 11 12 13 13 16 18 16 16 21 23 26 34 38 42 46 69 76 61 55 50 47 41 36 32 28 28 26
6 6 7 7 6 6 6 5 6 6 6 5 5 4 4 6 7 8 8 7 6 8 10 11 13 18 26 31 44 56 62 63 63 56 52 64 64 41 33 37 37 34 30 27
10 8 8 8 8 8 9 8 9 9 9 9 8 7 7 7 8 7 7 6 5 5 6 6 7 9 11 16 23 35 57 78 84 80 73 62 47 40 37 37 40 42 35 31
15 16 15 15 15 17 17 12 15 16 17 19 17 18 18 18 17 13 12 11 9 8 9 10 8 10 12 9 8 9 11 26 40 75 100 100 98 75 54 38 39 43 38 33
16 16 16 18 17 18 23 22 22 21 18 20 27 25 25 21 20 20 22 24 26 24 21 20 18 17 16 15 13 13 11 12 14 16 31 64 100 100 99 83 62 44 34 33
18 20 22 22 21 22 23 26 24 20 21 27 27 23 24 26 28 29 29 29 31 32 34 34 33 30 24 22 20 14 12 14 17 21 18 21 42 90 100 100 94 77 64 57
22 26 28 28 29 28 28 32 30 30 34 33 33 33 34 34 37 33 33 38 43 40 36 34 33 25 17 17 15 13 12 11 10 10 20 23 26 53 72 100 100 100 100 97
30 35 35 35 34 36 38 38 38 38 39 40 42 42 42 43 45 49 50 48 39 28 24 29 25 22 18 10 18 32 32 29 22 10 15 32 26 42 66 79 100 100 100 88
37 37 37 37 37 39 38 36 37 35 35 36 39 39 36 35 40 45 49 44 32 23 25 25 22 13 7 18 23 51 84 70 64 26 13 33 24 43 74 70 98 100 100 87
39 36 36 37 36 38 34 32 32 31 31 30 30 31 28 30 34 37 42 41 31 26 26 23 18 8 16 45 62 100 72 89 90 33 37 28 26 33 74 83 86 100 100 99
37 32 32 33 29 32 32 31 30 25 25 27 27 26 24 25 30 38 46 39 31 27 26 21 16 8 22 56 73 28 70 100 100 26 26 34 26 48 89 90 94 100 100 100

GFSCGP_500_rhum_105.txt.gz
RH
86 100 98 76 80 98 83 88 95 100 87 100 76 65 44 49 33 40 75 99 54 77 49 71 97 98 97 95 95 98 94 97 95 98 95 94 96 96 97 95 87 63 78 64
100 95 93 100 59 69 91 78 72 83 100 72 64 55 46 50 43 80 94 99 76 46 69 88 97 96 99 96 96 95 96 95 96 96 96 95 94 94 94 94 95 93 91 90
88 84 65 52 60 67 80 86 100 100 71 69 58 56 40 35 45 83 98 93 98 70 81 95 96 96 96 96 96 96 97 97 95 97 97 96 97 96 94 96 93 87 88 94
54 56 56 64 66 72 96 100 100 80 57 64 32 55 60 58 68 96 100 100 87 60 93 95 96 96 96 97 96 97 96 97 97 96 96 96 99 95 97 94 87 92 98 89
43 64 51 70 79 84 72 94 92 100 100 84 27 100 100 92 88 100 93 85 68 90 94 97 98 97 96 96 97 97 97 97 96 96 96 97 96 97 96 92 95 98 96 96
57 58 94 97 71 58 62 85 100 99 100 79 100 100 82 88 86 97 99 95 92 98 98 97 96 97 97 96 97 96 97 96 95 97 96 95 96 97 96 96 96 97 97 96
46 43 65 87 99 98 100 100 99 97 98 38 96 75 62 72 62 82 68 81 99 98 96 97 96 95 95 95 96 96 96 96 97 98 95 97 97 96 94 96 96 97 98 97
100 95 60 100 100 100 100 97 98 100 100 54 99 100 89 99 94 57 60 80 92 87 90 97 94 92 86 92 92 93 98 95 95 92 94 97 96 95 97 96 96 96 96 97
99 74 61 98 100 100 99 99 99 99 100 99 99 99 99 96 91 93 91 80 80 96 96 94 96 92 90 90 81 81 83 87 85 84 91 94 91 92 91 79 96 91 85 90
86 77 64 54 97 99 100 98 84 73 83 94 98 98 98 97 98 95 99 97 94 96 96 94 85 96 95 88 74 60 60 57 60 68 84 85 82 78 74 70 73 73 70 64
100 76 69 84 78 84 70 75 56 58 52 44 45 57 55 81 78 89 98 97 97 95 85 79 84 88 91 82 69 60 55 48 47 46 57 67 65 60 54 58 56 58 60 72
76 66 64 60 66 41 37 42 40 35 37 31 36 35 29 27 30 33 35 30 41 46 61 82 90 93 88 75 64 59 54 51 50 51 52 58 53 60 63 58 53 46 43 46
100 92 62 54 56 40 27 21 21 28 27 26 29 24 22 21 20 19 18 21 26 25 20 20 21 20 20 20 20 28 33 37 41 48 50 55 52 55 62 67 68 65 59 50
66 90 85 69 46 31 27 18 26 30 23 19 20 20 21 21 23 23 19 20 21 17 14 13 13 13 13 13 12 12 12 15 18 21 27 37 46 51 55 56 56 64 64 58
48 52 58 61 49 32 25 16 12 15 18 18 15 14 17 21 30 34 35 31 24 19 17 18 16 15 18 18 16 15 17 20 19 24 28 32 35 49 51 52 57 57 53 48
22 23 26 30 31 27 23 17 15 13 11 9 9 7 5 5 5 6 8 9 8 8 8 9 9 14 15 15 18 22 24 21 24 27 40 51 66 73 68 65 59 49 47 42
8 8 8 8 9 10 8 7 7 6 5 4 4 5 4 4 5 5 5 5 5 6 6 6 6 6 6 6 7 7 8 8 10 13 26 37 46 54 59 70 57 56 49 46
9 8 8 7 7 7 6 6 5 5 5 6 6 6 6 7 7 8 7 7 7 7 7 7 7 7 7 8 9 9 9 10 13 13 10 15 22 40 66 68 63 57 50 39
16 15 14 12 11 11 11 10 9 10 11 12 14 16 18 20 18 16 15 15 13 12 11 11 11 11 10 10 10 10 10 14 17 17 17 15 14 12 18 38 68 75 70 50
21 22 22 20 19 21 24 22 23 20 18 19 20 24 22 18 17 12 15 15 15 14 13 13 14 14 14 13 12 10 10 10 16 30 30 29 23 14 14 13 16 46 87 81
23 25 27 26 26 23 24 28 26 20 18 22 25 24 22 23 19 18 19 19 18 18 18 18 19 19 16 14 13 13 17 27 31 33 33 28 18 14 14 14 12 13 22 75
27 28 26 26 26 26 24 27 21 21 21 21 19 18 19 19 18 19 18 18 19 20 20 20 21 18 16 15 15 17 28 36 29 25 22 14 12 11 17 13 12 14 15 24
30 28 25 24 24 23 22 21 19 17 17 17 16 18 19 19 20 20 20 20 21 21 21 21 20 18 17 18 24 34 26 23 18 11 16 33 45 40 38 17 28 22 22 20
34 29 25 24 21 21 20 20 18 17 17 16 18 19 19 19 18 20 21 21 22 24 24 23 21 21 20 27 32 25 22 21 17 40 54 33 48 74 57 20 42 35 34 20
34 26 23 22 21 18 17 19 19 17 17 18 19 19 20 20 21 22 23 24 24 26 24 23 22 23 27 34 30 25 21 17 38 21 35 84 89 100 52 30 67 41 47 43
36 29 27 26 22 20 19 19 19 18 20 21 21 21 21 21 23 23 25 25 27 26 24 21 24 29 34 35 30 27 18 33 26 14 55 97 100 92 39 54 80 38 57 72

GFSCGP_500_rhum_108.txt.gz
RH
79 84 70 64 68 56 80 61 49 49 81 89 53 100 73 100 85 45 41 21 19 49 58 100 100 60 99 96 95 97 97 95 96 97 97 97 97 95 96 96 94 84 78 83
99 86 55 36 42 42 43 62 67 89 59 86 84 99 79 86 96 52 36 22 19 55 82 91 57 84 97 98 96 97 93 96 96 95 89 95 96 96 96 95 94 94 95 90
57 40 35 46 44 37 54 64 79 88 69 75 96 100 77 55 61 54 33 24 30 67 86 94 66 96 97 96 96 96 96 96 96 95 90 97 96 96 94 96 96 96 95 96
56 33 37 34 37 64 94 100 86 76 99 85 56 47 32 39 36 36 34 43 66 80 87 99 95 93 98 96 94 97 96 93 97 94 100 96 97 98 98 96 96 97 96 94
38 43 45 52 88 90 85 100 92 68 57 78 70 100 77 81 45 45 49 97 90 66 89 100 98 91 94 96 97 96 96 96 97 96 97 97 96 96 94 96 96 96 94 97
52 56 62 75 92 100 99 97 100 100 100 100 99 99 100 99 89 95 97 98 69 69 98 98 99 97 97 95 97 94 97 96 96 96 97 97 97 96 95 95 96 96 96 96
69 89 88 99 100 100 100 100 100 97 97 100 100 100 95 97 99 100 95 95 88 92 88 96 96 96 96 98 96 97 97 97 97 97 98 96 95 97 97 96 97 96 95 97
86 96 93 100 100 100 96 98 98 99 100 100 100 99 92 83 90 92 77 74 78 89 100 98 96 98 95 95 97 98 95 97 97 96 97 96 95 98 88 97 97 95 96 95
76 91 78 99 91 98 100 100 100 96 99 100 98 100 100 83 94 80 83 78 86 97 94 96 97 95 96 93 95 94 94 94 93 95 94 95 95 94 95 96 96 98 94 95
70 89 98 98 99 99 98 94 96 99 100 94 100 98 98 99 100 77 90 100 99 97 98 98 96 94 94 97 94 91 89 85 86 81 90 96 92 90 89 94 96 90 96 95
65 79 99 89 70 63 63 62 61 61 84 54 60 91 96 99 98 100 89 93 90 95 97 96 96 96 89 80 71 70 70 76 70 76 64 63 62 66 72 80 86 95 88 85
64 79 61 51 47 42 38 38 37 28 34 35 24 31 31 25 42 65 70 85 73 57 63 54 36 33 26 26 30 42 51 56 53 49 45 44 43 43 46 58 61 61 58 60
45 49 30 38 42 38 27 27 32 32 28 25 17 15 19 19 16 18 18 18 21 20 14 13 12 11 12 11 11 11 13 15 15 17 22 25 31 42 44 48 48 47 53 63
38 37 41 29 27 30 30 29 29 29 32 27 36 35 20 20 28 28 28 42 35 20 14 14 20 31 30 24 22 20 18 15 13 14 10 10 12 12 13 16 23 36 52 56
44 37 32 18 20 20 23 30 33 29 28 23 29 30 24 21 19 18 23 24 19 19 20 15 8 8 7 7 7 6 6 7 9 11 15 20 26 32 31 23 17 14 18 29
41 38 31 30 30 26 24 22 16 12 10 8 8 9 8 8 8 8 8 7 7 8 7 8 9 10 8 7 7 8 7 7 8 9 9 9 9 8 12 22 34 54 63 53
10 11 12 10 12 12 10 8 8 7 7 7 7 7 8 10 10 10 11 12 12 12 11 10 10 9 10 9 10 10 10 11 11 11 12 11 13 15 16 16 12 15 31 50
10 9 8 8 8 8 8 8 7 7 7 7 8 10 12 14 16 18 18 18 16 13 12 12 11 11 11 10 10 11 11 12 12 13 14 14 13 14 18 22 23 20 16 11
13 12 12 11 11 12 12 13 14 15 16 17 18 19 18 15 12 14 14 12 10 9 9 9 10 9 9 11 11 13 14 13 13 14 14 14 17 20 24 31 37 39 36 32
24 24 22 20 19 20 21 20 22 20 17 15 15 15 14 13 11 11 11 11 10 7 5 6 6 8 9 7 8 8 12 15 16 16 16 17 20 27 35 39 42 40 33 26
22 21 20 19 19 17 16 18 19 16 14 13 13 13 14 12 12 12 12 10 8 9 9 10 14 12 8 11 16 18 19 18 16 18 24 33 41 42 40 36 31 26 20 15
22 21 20 18 15 17 13 13 13 12 12 12 13 13 13 13 13 13 12 12 14 15 15 16 17 15 13 14 15 14 12 15 20 26 31 35 36 34 28 25 22 20 16 16
29 24 20 18 18 14 13 14 13 12 12 14 15 16 15 14 13 11 12 13 11 10 11 11 10 12 14 12 11 12 17 21 26 28 30 34 33 26 19 18 39 44 46 44
32 28 21 20 20 18 15 16 14 14 14 16 17 18 16 14 12 12 12 11 9 9 10 9 10 12 12 10 12 16 24 30 32 35 36 32 21 16 25 21 15 15 14 19
35 32 28 25 25 23 20 18 17 16 16 17 19 19 17 15 14 14 12 11 11 11 10 12 12 12 11 10 11 17 24 32 33 33 32 24 19 27 18 28 61 67 87 100
43 38 36 32 30 31 29 23 20 20 20 22 21 21 17 15 14 13 13 12 11 10 13 14 13 12 9 7 9 13 21 26 26 24 25 18 25 21 46 73 82 100 100 84

GFSCGP_500_rhum_111.txt.gz
RH
33 53 67 61 33 28 24 29 35 46 50 45 44 36 28 22 11 9 15 18 23 19 16 15 13 8 10 41 52 94 80 83 95 96 96 96 98 96 97 95 95 90 81 75
39 30 18 19 25 28 36 49 52 61 53 48 57 62 33 80 96 95 84 51 37 29 22 18 14 11 30 52 66 99 98 72 95 96 97 96 96 96 96 97 96 96 94 88
22 22 26 32 36 54 69 83 62 54 62 93 92 53 71 71 95 91 85 54 41 28 22 19 14 44 56 54 70 97 98 95 97 96 97 96 96 96 96 97 97 96 96 93
25 31 42 46 45 47 44 53 84 74 69 48 50 47 37 30 49 49 41 45 28 22 18 21 41 65 75 62 95 100 96 96 97 97 96 96 96 96 96 97 96 93 98 94
43 58 52 50 59 70 78 91 87 89 99 95 85 70 57 80 69 60 30 21 24 17 42 54 70 45 98 96 96 97 96 96 91 93 94 95 96 97 97 96 96 96 97 96
77 74 82 96 100 100 100 100 100 100 100 98 100 100 100 94 86 52 28 38 32 56 70 98 97 98 96 90 96 94 97 97 96 94 97 97 96 96 94 97 97 95 96 98
81 75 92 100 100 100 100 100 100 99 100 100 100 100 100 100 98 98 100 96 85 77 94 96 96 98 98 96 89 94 96 94 96 97 97 97 96 96 94 96 96 96 96 96
79 74 86 100 100 100 100 93 100 100 95 100 100 100 100 100 100 99 99 79 95 97 90 99 98 98 98 96 96 96 97 97 97 97 97 95 96 96 97 96 97 97 97 97
85 73 94 100 98 100 100 89 97 99 100 100 100 96 98 100 94 100 98 98 76 96 98 98 99 97 97 95 95 98 97 96 97 95 92 97 95 97 94 95 95 94 97 96
96 98 99 100 98 100 99 100 96 98 99 98 95 96 99 99 99 97 98 92 80 97 98 97 97 98 95 93 94 92 94 94 91 94 90 94 95 96 95 95 96 97 97 96
75 83 86 83 85 89 97 99 84 99 96 98 97 93 100 98 97 92 89 94 98 98 96 98 98 92 72 62 66 56 56 57 62 76 74 71 76 78 76 77 75 85 81 95
58 48 55 58 53 51 58 60 74 58 77 59 32 82 96 99 95 99 98 98 97 95 87 64 52 40 30 18 14 13 15 16 19 21 30 42 46 48 47 49 48 53 60 68
37 36 46 44 50 48 51 50 52 70 65 58 61 57 63 54 31 39 52 47 47 49 74 42 23 17 14 16 21 18 13 12 13 13 14 20 30 26 25 34 44 46 48 52
28 30 34 36 45 43 46 43 37 36 47 46 60 50 54 70 77 69 49 36 38 33 38 29 24 22 16 8 5 5 5 6 7 9 12 16 18 24 30 32 28 32 43 51
33 32 39 37 36 30 24 26 23 19 13 17 12 10 12 14 17 16 12 11 11 11 8 7 7 7 8 7 7 7 6 6 7 7 7 6 6 6 7 7 10 23 36 43
19 18 13 10 9 8 8 8 8 8 8 10 10 11 12 13 13 13 14 13 13 13 12 13 9 9 8 8 10 10 10 9 10 9 9 8 7 8 8 8 8 8 9 9
7 7 8 8 8 8 9 10 12 13 15 16 16 17 18 16 16 15 14 13 15 18 16 14 15 15 14 11 6 5 5 5 5 6 8 9 11 12 11 11 10 10 10 11
11 11 11 12 12 12 12 12 14 15 17 17 18 18 19 20 18 19 20 18 22 21 18 14 12 7 5 5 5 5 4 4 5 5 7 8 9 10 11 13 14 14 14 14
15 15 15 16 18 18 18 18 17 15 16 17 17 17 16 17 19 17 15 15 14 8 5 4 4 4 5 5 5 5 6 6 8 8 9 10 10 11 14 14 15 13 14 17
20 18 17 16 16 18 17 16 13 12 13 12 13 13 11 10 9 8 6 6 4 4 4 4 4 5 4 5 5 5 4 4 6 8 9 9 12 15 21 26 30 27 27 26
17 17 18 18 18 18 15 16 15 15 13 12 13 13 12 11 10 7 5 6 5 6 5 4 4 5 5 5 5 4 4 5 6 7 6 10 21 22 26 34 32 31 29 27
22 18 16 15 14 15 12 12 12 12 12 13 15 16 15 13 13 10 7 6 6 6 4 4 4 5 5 5 6 5 5 5 5 6 4 5 7 11 25 34 36 33 31 28
29 26 22 19 18 17 14 14 14 14 12 14 16 16 18 16 13 10 8 7 7 7 7 6 5 5 5 6 6 5 6 6 7 5 4 5 5 7 14 23 28 27 22 18
38 32 29 28 24 24 23 21 18 16 15 15 15 17 20 19 16 13 11 9 9 9 8 7 7 8 9 8 6 6 8 9 6 4 4 5 5 8 10 15 21 23 27 30
40 40 37 35 34 30 29 30 29 25 20 20 21 25 21 20 16 11 10 10 10 10 9 9 10 10 8 7 7 9 10 7 4 4 4 4 6 9 11 13 16 33 67 54
38 44 44 41 38 37 32 32 31 32 30 28 28 26 22 21 14 12 11 12 12 13 13 12 12 10 8 8 10 11 9 5 4 4 4 5 6 9 12 13 27 68 97 82

GFSCGP_500_rhum_114.txt.gz
RH
35 44 39 19 19 23 21 28 36 32 38 28 47 12 17 11 17 12 13 14 13 16 26 34 38 38 29 26 18 13 9 5 6 23 24 5 10 36 82 96 98 95 95 96
29 17 13 17 24 27 31 28 34 45 60 80 68 84 60 66 17 12 12 12 14 15 13 14 18 20 21 20 12 13 8 20 61 63 64 31 13 35 97 97 98 97 97 96
18 22 26 28 30 34 37 40 41 44 80 70 52 55 42 38 46 51 39 22 12 11 14 15 14 12 15 15 11 9 10 16 86 71 69 81 50 53 74 84 96 96 95 92
29 37 45 55 69 79 91 97 96 57 37 54 44 36 50 54 49 63 79 60 48 45 35 24 32 18 10 9 8 6 41 79 78 85 58 97 85 85 85 92 96 96 96 94
53 66 76 81 87 93 100 98 100 100 97 93 47 57 88 74 58 41 56 45 34 29 26 25 28 24 14 10 9 32 52 66 94 97 97 97 97 100 96 96 92 96 96 96
67 79 78 93 100 100 100 100 95 98 91 100 100 100 100 100 100 62 37 28 32 22 20 62 64 81 33 90 58 45 86 99 97 96 97 97 97 96 95 95 95 97 96 96
56 62 72 92 93 97 90 100 89 99 100 99 100 100 100 100 62 32 34 54 37 53 93 93 90 94 97 85 89 86 94 93 97 97 96 96 96 96 96 97 96 96 97 98
64 80 68 92 100 98 98 98 100 100 100 100 100 100 96 100 96 94 96 100 100 98 98 98 94 98 98 98 99 91 96 96 97 97 97 97 96 96 96 96 97 97 97 96
69 76 85 99 100 100 99 100 98 98 95 100 97 100 91 92 93 98 98 98 99 99 98 98 98 98 98 97 98 97 97 97 97 97 96 96 90 95 96 96 95 96 96 95
88 100 100 100 99 100 100 96 99 96 92 88 98 96 96 98 99 97 98 100 98 98 98 97 98 97 97 97 97 96 96 97 98 97 97 93 97 97 96 97 96 95 97 95
88 95 90 100 100 97 100 95 100 99 85 88 82 95 98 99 99 99 97 99 99 98 96 97 95 86 83 77 63 66 72 84 92 89 84 81 92 81 95 90 89 86 90 78
58 63 63 65 73 75 83 83 96 93 100 83 75 94 99 98 88 99 99 98 99 96 95 95 88 46 48 60 74 70 63 40 40 46 36 50 50 71 79 85 86 67 54 52
36 37 37 41 41 49 48 43 39 54 92 98 99 100 96 100 98 90 79 91 88 80 95 56 49 46 39 27 24 23 20 17 15 12 12 18 22 25 31 43 62 62 67 63
37 35 32 31 30 30 19 25 26 35 48 64 64 67 86 88 80 72 66 52 34 35 35 34 26 10 7 6 6 6 6 6 5 5 5 4 4 4 4 5 7 11 20 40
18 14 12 11 9 7 7 7 8 8 9 9 9 9 10 11 12 10 10 11 9 8 7 7 8 8 8 8 8 8 8 6 4 4 4 3 3 4 5 7 7 7 7 7
7 6 7 7 9 10 10 12 14 15 15 18 16 13 13 12 12 13 12 11 10 11 12 11 10 9 9 8 5 4 4 4 4 4 4 4 4 4 4 4 5 5 6 9
9 10 10 10 11 11 12 12 14 15 16 17 16 15 15 16 15 14 12 11 12 12 13 12 10 7 6 5 5 5 5 5 5 5 5 5 5 5 5 5 6 6 5 5
12 12 13 13 13 13 14 13 12 12 12 12 14 14 14 14 12 12 13 12 11 10 9 8 7 6 5 5 5 5 6 7 7 6 6 5 5 6 6 6 7 6 5 5
16 15 14 14 14 14 15 14 14 13 12 11 11 11 12 11 11 8 6 6 5 5 5 4 4 5 5 6 6 6 8 8 8 7 6 6 5 5 6 5 7 5 4 4
19 18 17 16 15 14 14 14 13 14 13 12 12 11 11 9 8 6 5 5 4 4 4 4 4 5 6 7 8 8 10 10 8 8 7 6 5 6 6 7 6 4 4 4
25 22 21 20 19 18 14 13 12 13 13 13 14 15 15 13 11 8 6 6 6 6 6 7 6 6 8 10 12 11 11 10 9 8 7 6 6 7 7 6 4 4 4 5
32 29 28 24 21 22 19 17 15 14 13 12 14 15 15 17 18 16 11 9 8 8 8 8 8 9 11 13 15 14 12 10 9 8 7 7 7 7 7 4 4 4 4 4
38 38 32 31 30 27 25 25 26 22 19 17 16 16 16 22 20 18 14 10 9 8 9 11 13 15 16 16 17 15 13 10 9 9 8 7 7 6 3 4 4 4 5 6
32 38 40 38 36 36 34 32 31 33 32 28 23 21 23 25 22 18 17 12 10 9 10 12 14 18 18 18 19 16 13 12 11 10 8 9 6 4 4 4 4 5 5 7
29 36 36 43 38 40 40 37 35 32 28 29 30 28 27 26 23 21 18 12 12 12 12 13 16 20 20 20 21 17 14 13 11 8 10 8 4 4 5 5 5 6 9 10
30 31 35 44 40 45 45 42 34 28 28 26 27 27 27 26 25 24 20 16 17 18 18 19 22 23 22 23 22 16 14 12 10 12 10 4 4 6 6 6 7 14 13 23

GFSCGP_500_rhum_120.txt.gz
RH
22 22 23 23 23 20 12 20 42 44 40 34 37 19 34 40 37 20 6 8 12 14 15 16 21 26 27 38 61 64 58 62 55 45 44 49 46 42 38 35 17 11 10 9
16 13 12 11 12 31 56 55 42 43 39 46 46 45 62 75 68 49 44 38 7 8 13 14 15 25 29 28 49 64 62 67 66 51 46 46 48 43 40 36 27 15 10 9
44 43 42 53 58 53 46 44 47 52 54 63 60 81 75 92 83 43 61 58 21 7 6 11 14 16 26 31 45 64 62 65 69 59 54 56 55 48 42 35 24 13 10 11
52 54 58 53 40 40 46 55 65 63 55 61 76 66 99 98 100 53 59 85 86 46 10 6 11 15 18 26 33 49 53 57 65 58 59 57 52 48 40 31 21 12 14 24
44 41 51 52 44 46 56 72 78 83 75 80 92 86 100 100 100 42 51 95 100 100 81 12 9 12 15 19 26 36 37 35 45 55 54 50 44 36 21 17 17 12 36 37
32 35 46 41 50 54 61 77 92 93 86 86 91 100 100 63 46 36 45 89 100 100 100 100 63 10 13 14 16 20 24 22 26 38 44 41 33 19 14 18 18 62 78 46
46 44 49 53 59 58 72 78 84 88 92 90 83 85 98 96 88 96 100 84 94 100 100 100 46 19 12 12 13 14 14 14 16 22 24 26 16 14 22 48 82 93 84 82
51 60 71 62 68 64 64 70 73 78 81 86 87 99 98 100 98 99 98 98 97 98 99 100 100 100 81 24 17 12 11 13 14 16 12 12 16 44 83 98 94 98 100 93
78 79 79 79 80 80 65 64 77 92 87 97 94 97 99 98 98 100 100 99 98 99 98 99 99 99 100 100 100 83 44 19 18 23 61 91 68 95 99 96 97 98 96 97
67 60 52 67 67 68 76 72 79 88 95 97 94 96 97 100 95 99 98 98 98 100 100 99 99 99 98 99 98 98 74 48 63 92 99 95 97 98 97 97 93 96 96 97
34 37 38 41 38 40 69 74 80 85 88 99 90 97 97 99 100 97 98 95 96 99 98 98 98 98 98 98 99 97 99 97 97 100 100 99 98 100 98 95 90 97 97 97
25 28 25 20 23 28 60 77 70 72 79 96 100 99 100 97 100 100 96 96 87 84 93 92 93 90 97 94 80 95 94 53 63 84 77 83 93 30 43 34 30 39 29 21
15 12 9 8 13 20 31 71 62 65 70 76 76 82 99 100 98 94 74 74 76 71 61 50 36 27 21 22 23 29 22 23 11 6 6 5 4 4 4 4 4 4 4 4
8 8 8 8 7 7 10 13 19 25 41 74 58 41 35 76 54 47 39 49 36 26 21 12 11 8 7 7 7 6 5 5 5 5 5 6 6 6 7 7 7 6 6 6
8 10 12 12 12 11 11 10 9 9 8 8 8 8 9 9 8 8 8 8 8 8 8 8 8 8 7 5 5 5 5 5 6 7 8 8 8 8 8 8 8 7 6 7
10 12 13 14 15 15 14 15 15 13 12 13 12 12 13 13 10 8 7 7 7 7 5 4 4 4 5 5 5 5 6 7 10 11 11 11 11 10 10 10 9 9 9 8
14 15 15 15 16 16 15 15 14 15 15 13 11 10 10 10 9 8 6 5 4 4 4 4 5 5 5 5 6 6 8 10 14 17 16 16 14 12 11 10 10 10 8 7
14 15 15 15 15 15 15 14 13 12 12 10 8 8 6 4 4 4 4 4 4 4 4 5 5 5 5 6 8 10 14 17 18 19 20 20 17 13 11 11 10 8 6 7
24 22 20 17 15 15 13 12 13 13 11 11 10 8 6 5 4 4 4 4 4 4 4 4 5 7 8 11 15 16 18 18 19 20 21 18 14 10 9 6 6 8 8 9
33 32 30 29 26 22 20 16 14 15 14 13 13 12 12 12 10 8 6 5 5 5 5 6 7 9 11 13 13 12 13 19 21 22 17 14 10 9 9 8 9 10 10 8
33 35 32 32 32 31 31 32 28 27 24 18 15 13 14 16 15 15 18 17 16 13 12 10 9 9 9 10 11 13 16 18 22 22 18 15 11 11 11 12 11 12 11 8
30 29 31 31 32 33 36 36 37 37 35 31 31 27 23 19 16 16 17 24 25 22 18 16 12 12 12 14 16 18 21 23 23 21 17 17 13 14 14 14 13 14 10 6
24 24 26 28 32 32 36 35 37 39 41 38 30 25 24 26 27 27 26 25 23 22 21 20 20 15 14 18 20 21 23 25 26 23 21 18 16 17 17 16 15 13 8 5
20 20 21 23 27 28 30 34 37 38 38 41 46 39 25 25 25 24 23 23 24 24 24 22 21 19 20 21 21 22 25 27 26 26 23 21 20 20 20 17 15 11 6 4
9 12 13 14 16 20 29 32 34 36 40 42 42 44 46 38 28 29 28 27 26 24 23 23 24 23 23 26 25 27 29 29 29 32 31 27 26 23 23 18 14 10 6 3
26 16 15 17 18 17 16 18 22 35 41 50 46 51 56 55 50 39 29 31 33 33 29 28 29 28 28 29 31 33 35 35 35 40 39 38 33 29 26 20 14 9 5 3

GFSCGP_500_rhum_123.txt.gz
RH
22 20 18 17 16 15 15 18 18 22 22 23 35 30 33 39 41 41 38 33 18 12 12 14 14 16 19 22 24 29 28 24 41 59 55 45 40 34 29 24 22 24 17 14
14 13 13 14 14 14 17 26 34 42 36 32 32 34 48 50 36 50 60 68 39 37 16 11 12 14 16 19 21 28 27 25 27 40 66 60 50 44 36 34 36 38 39 37
27 38 44 39 40 34 38 45 50 45 51 58 44 43 71 73 66 61 80 59 47 56 39 22 10 9 12 15 18 22 24 22 26 30 55 69 62 54 48 46 48 44 42 38
37 38 39 39 34 38 48 60 69 68 55 55 61 62 89 81 62 43 58 48 78 88 90 46 13 8 7 12 14 16 18 19 24 35 44 72 66 60 60 61 56 50 46 40
26 32 38 39 39 48 66 70 73 76 62 59 63 63 80 84 98 90 50 65 100 99 99 99 21 15 8 7 12 12 14 14 25 36 57 79 68 67 67 62 57 54 49 42
34 43 48 46 50 61 68 66 80 85 75 53 71 89 93 94 100 100 100 90 91 94 100 100 100 86 78 8 8 11 12 14 18 30 50 66 64 56 58 59 55 50 46 33
64 63 68 65 63 55 64 66 71 71 74 87 93 96 98 99 97 100 98 95 96 100 100 100 100 87 34 9 8 9 12 14 16 25 40 39 33 39 48 46 44 34 22 19
63 72 75 67 60 57 68 64 70 88 88 93 96 99 100 100 100 100 100 100 100 100 100 100 100 99 94 24 10 10 12 13 14 17 23 24 23 32 36 35 25 17 40 70
45 41 46 47 52 62 75 73 76 87 81 97 97 98 96 99 100 100 100 97 100 100 98 97 97 100 100 98 55 22 13 14 14 15 15 17 18 20 22 14 27 97 98 86
31 34 25 32 46 62 73 70 77 73 83 86 98 97 91 94 87 89 91 96 97 98 100 99 100 100 99 98 88 97 44 27 26 39 46 58 88 77 62 85 86 95 94 97
20 20 17 23 46 60 56 62 66 73 68 90 86 97 98 97 98 97 98 99 100 99 98 100 100 98 98 99 99 95 72 95 75 76 85 98 99 97 93 95 95 88 91 95
11 10 10 15 33 57 52 54 60 66 66 69 87 94 100 95 91 97 97 96 95 98 97 98 98 98 98 97 98 98 98 99 98 100 98 80 36 52 57 38 29 21 30 33
8 8 8 8 11 13 18 27 27 54 54 43 45 61 53 63 69 40 45 33 30 65 70 52 39 65 75 80 90 75 45 48 51 54 52 27 13 5 5 5 6 6 6 6
10 10 10 10 10 9 8 8 8 8 9 10 15 20 16 10 10 10 10 8 8 7 8 9 12 11 9 9 8 7 6 6 6 6 6 7 7 8 8 8 8 9 9 9
11 12 12 12 13 13 12 12 12 12 12 12 12 11 11 9 10 10 9 9 7 7 6 6 6 6 5 5 5 6 6 7 8 10 10 10 10 10 11 11 11 11 11 11
12 12 13 12 12 12 12 12 12 11 10 10 9 10 11 10 10 8 8 6 6 5 5 5 6 6 6 6 6 6 8 10 14 17 17 17 17 15 14 13 12 11 11 11
14 14 14 13 12 11 11 10 10 10 8 7 6 6 5 5 5 4 4 4 5 6 6 6 6 5 5 6 7 9 14 16 18 19 20 21 22 21 19 15 12 13 12 11
24 21 20 17 15 14 12 10 10 10 10 8 6 5 4 4 4 4 4 4 4 5 5 5 5 4 5 8 10 14 17 17 18 20 21 22 22 21 19 18 14 13 11 11
35 34 30 28 26 23 19 15 13 12 13 12 11 10 8 6 5 4 4 4 4 4 4 4 5 6 7 10 13 13 14 12 13 17 20 21 21 18 14 11 10 11 12 13
37 37 36 38 38 34 32 33 31 27 26 19 14 13 13 14 15 15 14 12 10 8 7 7 7 8 8 9 9 9 10 12 16 19 21 21 17 13 11 12 13 14 15 16
30 28 28 29 30 33 35 40 40 37 34 33 30 29 27 22 17 15 14 15 16 20 23 22 19 17 15 12 11 11 14 17 19 21 21 20 14 12 13 15 17 20 20 20
22 22 23 23 26 27 30 32 33 34 38 41 42 39 30 23 22 23 25 24 23 23 25 24 22 22 21 19 16 15 16 19 20 19 20 23 24 22 22 24 23 25 26 25
13 14 14 14 18 17 19 22 28 33 35 37 40 42 43 44 36 27 26 26 24 24 24 24 24 24 23 22 22 20 19 19 21 22 28 31 30 30 35 36 37 36 36 32
8 9 9 10 10 11 12 13 15 16 18 24 31 39 44 45 46 51 52 43 33 31 30 27 28 28 24 24 26 26 26 29 32 36 38 40 45 48 44 41 41 42 42 37
28 23 21 23 39 33 40 34 39 41 42 40 26 25 37 46 54 53 63 76 77 77 68 46 35 34 36 36 34 36 37 39 42 44 46 49 48 49 51 52 46 48 45 39
11 11 11 22 18 20 28 25 26 29 31 35 46 46 33 28 38 50 61 68 86 90 84 86 83 68 51 41 40 42 44 46 49 51 54 58 60 61 59 60 60 57 53 47

GFSCGP_500_rhum_126.txt.gz
RH
28 22 18 15 13 11 10 10 10 10 11 13 25 18 24 29 30 28 28 30 35 32 23 14 10 9 9 11 12 12 10 8 8 8 9 22 62 51 45 44 38 32 28 24
12 11 11 11 11 11 13 18 22 28 28 32 32 35 40 43 48 50 56 59 52 54 57 54 32 18 9 8 10 12 13 13 13 11 16 16 48 64 54 48 48 41 33 27
21 22 27 24 22 27 32 37 45 49 59 48 43 48 47 48 69 82 66 34 40 52 64 47 47 38 21 13 10 11 11 13 15 15 20 24 27 43 64 62 56 51 42 33
25 28 30 26 27 30 41 54 66 64 59 44 33 36 43 62 84 91 99 74 43 49 64 68 83 67 45 20 16 9 11 13 15 15 16 27 28 28 51 73 66 58 51 43
24 32 31 27 28 39 60 65 64 61 47 42 39 60 87 89 86 78 86 75 87 74 72 78 89 98 40 27 21 13 9 12 15 16 17 23 25 24 41 67 70 66 60 52
44 48 46 46 46 55 59 59 56 59 62 77 84 86 84 82 76 85 86 97 97 99 100 100 98 100 99 35 20 20 13 11 14 15 16 19 20 21 33 47 65 72 68 65
68 68 65 57 55 61 64 68 75 80 83 78 85 84 85 82 79 78 81 88 100 99 100 100 100 100 100 91 44 25 12 10 12 13 14 15 15 22 32 44 64 69 66 62
50 47 46 56 56 68 67 67 71 84 85 86 84 95 98 85 83 86 90 97 100 99 100 100 100 100 100 72 14 9 12 11 12 12 13 13 17 29 47 59 50 42 51 54
27 33 38 56 54 65 73 75 72 72 76 80 80 83 95 95 94 90 98 100 100 92 94 96 98 97 100 72 19 13 12 11 10 12 15 19 28 37 35 28 26 41 44 41
24 23 39 52 54 56 57 56 69 63 78 90 88 82 92 89 96 98 100 100 100 97 95 95 97 98 99 100 77 30 16 14 14 15 15 17 19 20 24 42 29 28 23 28
11 18 31 47 55 54 59 61 60 57 58 81 75 62 67 32 43 83 93 97 100 100 87 100 100 100 98 94 92 69 56 92 88 63 58 89 92 95 98 100 90 91 58 73
8 9 11 16 17 26 27 15 40 51 40 44 47 39 34 22 12 25 94 95 66 96 98 100 99 100 97 98 100 91 100 96 91 86 95 100 99 90 75 67 50 44 50 53
10 10 10 9 9 8 8 8 8 9 12 17 16 15 9 8 8 8 12 36 69 18 30 40 77 89 92 56 64 56 62 92 99 95 50 48 50 45 41 32 15 7 6 6
11 11 11 11 11 10 11 11 12 12 11 10 10 10 9 9 9 9 10 11 12 21 31 12 22 25 12 20 9 10 24 29 36 32 28 34 13 7 7 7 8 9 9 9
13 13 12 13 13 12 12 10 10 10 10 11 10 10 10 9 8 8 8 6 5 6 5 6 6 5 7 11 14 14 8 10 11 13 10 10 11 10 10 11 11 11 12 12
14 14 14 14 12 11 10 10 11 10 8 7 6 5 5 5 6 6 7 7 7 7 7 6 5 5 6 7 7 10 12 15 17 18 19 20 20 20 20 20 19 16 13 12
24 23 21 19 17 16 12 10 10 11 10 7 5 4 4 4 4 4 4 4 4 4 4 5 5 5 5 7 8 12 16 17 17 18 19 20 22 22 23 23 20 16 15 11
33 33 30 28 26 24 21 18 18 14 14 14 12 9 7 5 4 4 4 4 4 4 4 4 4 5 5 7 8 10 14 14 16 13 14 16 20 20 22 23 22 17 14 14
34 33 31 33 36 37 34 33 33 29 26 24 20 16 14 14 14 14 13 11 10 8 7 7 9 9 9 10 10 9 10 10 11 11 13 16 19 22 24 24 24 18 15 14
28 27 26 25 26 28 30 35 38 38 38 36 35 30 27 25 24 22 19 17 16 15 15 17 20 24 25 23 21 18 13 11 11 13 15 19 22 24 24 24 21 17 17 19
21 21 20 20 20 20 22 26 26 28 31 35 39 41 41 41 38 29 23 22 24 25 26 26 26 27 26 25 25 24 23 21 18 16 16 19 23 25 25 26 28 27 27 26
13 13 12 11 11 10 10 11 12 13 14 20 25 30 34 39 43 44 46 47 40 30 28 28 27 27 28 28 28 27 26 25 25 25 22 21 22 25 28 32 32 30 34 40
8 8 9 9 10 11 13 13 16 19 20 23 24 23 22 23 29 38 47 51 52 60 69 71 70 65 53 40 34 35 35 29 27 27 28 30 30 33 36 36 37 41 45 47
20 20 22 20 26 25 22 23 25 28 33 37 43 44 45 43 35 28 31 33 44 56 62 70 72 76 79 76 78 74 50 41 41 40 41 43 44 44 46 48 51 54 58 62
13 16 14 13 22 16 10 9 10 11 10 10 14 16 18 27 41 47 52 51 47 41 40 48 54 65 84 83 73 68 68 78 89 76 59 49 48 50 53 55 58 68 79 82
6 8 6 7 5 8 8 6 6 7 7 8 9 9 9 9 9 10 13 14 18 38 58 63 67 73 77 80 84 86 93 92 88 86 84 90 94 95 93 95 96 92 84 78

GFSCGP_500_rhum_129.txt.gz
RH
43 34 27 21 17 14 11 10 9 8 8 7 9 7 17 16 23 24 37 52 54 55 49 43 32 23 13 9 8 9 10 12 14 14 11 9 7 7 9 16 54 48 45 44
17 13 11 9 9 8 8 9 10 15 18 25 28 29 34 33 32 34 41 54 67 80 75 50 59 63 52 36 25 18 11 10 12 14 13 11 10 7 9 12 25 66 61 52
10 12 14 14 17 18 25 28 33 43 49 36 31 29 32 30 35 41 44 48 51 42 50 58 38 37 43 50 50 44 31 15 11 11 12 13 13 9 10 13 29 61 73 67
19 18 18 16 19 25 36 51 55 44 47 38 30 34 37 38 54 67 41 51 65 70 76 83 75 71 82 71 67 61 41 22 16 13 12 12 13 14 14 13 28 44 55 70
25 27 25 25 27 38 51 45 47 48 56 58 61 62 64 66 68 58 48 49 58 65 89 100 100 100 100 100 100 77 54 42 16 15 12 12 12 13 16 17 29 41 39 40
48 40 38 40 44 48 49 51 61 75 67 74 80 71 71 76 78 79 69 64 67 75 89 96 93 99 95 95 99 75 47 51 39 20 12 12 16 16 18 21 30 33 29 29
58 53 48 44 50 65 78 68 72 67 72 76 73 77 90 90 84 78 71 83 71 73 78 89 92 98 100 100 94 64 34 39 40 24 20 14 17 17 18 19 25 26 23 28
42 41 48 54 64 68 62 62 59 58 62 70 82 73 77 76 78 71 51 73 70 89 97 97 99 99 96 81 37 56 51 31 24 20 32 23 15 15 16 16 19 18 24 42
28 36 51 54 60 61 59 66 59 61 66 77 74 47 36 47 77 86 77 57 81 84 92 93 97 96 47 20 18 19 19 27 19 15 15 14 14 13 14 14 20 27 49 62
26 32 51 53 56 52 55 56 52 49 55 55 45 41 18 74 76 60 70 88 86 100 82 94 98 95 100 92 26 17 15 15 14 13 13 13 14 15 17 32 40 47 38 26
17 27 40 44 39 33 21 22 48 38 34 35 24 17 24 20 53 59 53 52 77 88 99 98 98 99 98 97 89 70 36 26 20 15 14 15 19 23 27 30 72 84 99 98
8 8 8 8 8 8 9 9 9 10 11 11 11 8 9 9 13 32 58 31 14 38 94 51 64 83 70 96 99 98 98 100 99 100 99 85 78 98 99 99 97 99 99 98
11 10 11 11 11 11 11 11 11 11 11 10 10 9 9 10 12 12 24 34 14 15 34 26 20 15 35 31 34 86 98 90 94 97 98 96 97 94 95 78 44 38 76 65
13 13 13 13 12 12 12 11 10 9 10 10 8 8 8 6 6 6 6 6 6 6 10 13 13 14 11 10 10 19 22 18 32 38 36 44 46 36 35 19 7 8 13 10
15 16 15 15 15 14 13 12 12 11 8 5 5 5 6 6 6 7 7 7 7 6 6 5 5 6 7 7 9 12 16 15 18 17 12 11 10 10 10 10 11 12 12 12
24 24 23 22 21 19 14 12 12 12 11 9 5 5 4 4 4 5 5 4 4 4 4 5 5 5 5 6 8 12 15 16 17 18 18 19 19 20 20 21 21 21 21 20
31 32 29 27 28 27 27 24 23 19 15 15 13 9 8 7 5 5 5 4 4 4 4 4 4 5 5 5 6 8 11 15 17 18 16 16 18 20 21 21 21 21 21 20
32 29 29 30 29 30 32 32 32 31 30 29 28 24 19 16 15 15 15 14 15 15 15 15 16 18 20 20 18 16 13 10 10 12 13 14 12 13 16 18 20 22 22 22
29 28 24 23 23 24 26 28 30 30 34 35 35 36 36 34 32 30 27 26 24 23 22 22 20 19 19 21 25 26 25 23 20 15 12 12 12 13 15 18 20 22 24 25
23 22 20 20 18 18 18 20 20 20 22 24 30 33 35 37 40 41 43 43 37 30 27 26 26 26 27 27 26 26 25 25 24 24 24 23 21 18 17 18 20 22 25 25
15 16 15 14 13 12 11 10 10 12 12 12 14 16 18 21 26 28 36 43 46 48 51 54 52 45 44 46 46 46 41 35 33 34 31 27 27 28 28 26 24 23 26 30
8 8 8 9 8 9 9 9 10 11 13 15 21 22 27 27 28 31 29 29 33 40 47 52 57 67 72 73 73 72 70 66 65 66 63 52 42 36 32 31 33 36 39 40
17 17 15 13 17 18 14 14 18 24 29 33 35 35 34 33 36 36 38 40 40 38 37 36 38 42 46 49 51 52 57 64 69 70 70 72 76 75 74 67 58 49 47 46
9 11 10 10 24 17 6 17 23 12 16 17 19 23 15 15 11 10 12 12 13 16 19 18 25 37 42 45 40 42 46 39 37 43 57 58 58 53 52 62 63 66 73 82
8 8 7 5 12 7 7 10 8 6 7 8 9 10 9 8 10 9 9 10 10 11 10 11 12 11 10 10 11 10 8 8 8 9 10 10 11 11 11 12 13 18 26 34
9 8 5 4 6 6 8 7 7 7 7 7 8 8 10 9 10 9 9 10 11 12 12 10 9 8 8 7 6 6 6 8 8 10 12 13 13 14 14 16 15 12 19 33

GFSCGP_500_rhum_132.txt.gz
RH
46 42 41 36 30 24 19 14 12 10 8 7 7 7 9 14 17 16 12 18 21 22 26 32 35 33 33 25 20 14 8 9 8 8 9 9 8 10 11 10 8 8 8 15
32 25 19 14 11 9 8 7 6 8 12 13 20 20 20 21 21 23 24 26 27 35 41 43 41 44 43 40 32 32 49 37 22 15 12 11 10 11 15 23 11 8 10 11
12 11 9 8 8 8 10 23 26 22 28 23 24 28 31 37 37 34 44 43 45 43 43 47 46 55 67 58 48 45 34 44 54 52 32 17 12 12 14 84 14 13 13 17
11 12 12 11 16 20 31 34 35 30 28 40 35 37 53 56 56 46 45 51 48 50 41 41 52 64 78 94 84 84 94 82 55 45 48 45 22 14 14 27 36 40 14 16
20 19 21 23 30 41 41 37 41 50 47 49 55 59 52 68 77 63 59 54 67 54 46 51 53 61 74 80 94 100 97 95 81 80 68 43 39 22 26 69 54 92 46 18
38 34 34 38 41 39 46 48 55 50 53 56 58 62 57 61 62 56 49 57 52 46 68 79 81 70 78 83 91 100 100 100 98 91 91 72 36 25 69 30 48 77 96 29
44 38 36 37 42 53 49 47 49 44 55 56 66 41 44 64 63 53 72 74 63 62 78 76 77 68 14 14 38 91 92 52 54 94 100 83 46 44 86 43 74 73 52 20
37 34 35 42 47 47 46 47 43 47 57 59 65 36 80 76 73 69 69 59 63 69 76 84 88 60 20 17 16 34 40 51 81 100 100 71 72 63 90 86 42 39 18 17
33 37 36 43 44 42 46 44 34 39 53 48 29 37 56 55 45 35 74 62 68 67 73 85 98 100 90 38 24 17 21 32 36 71 77 83 61 52 92 40 23 14 16 18
27 38 41 40 44 37 23 13 28 21 23 26 17 20 12 31 34 21 49 43 40 31 29 43 58 85 96 99 92 32 23 19 19 40 56 51 40 32 21 17 16 16 16 17
14 16 14 12 10 8 9 9 10 11 11 13 9 8 9 9 17 21 19 37 32 25 19 28 38 49 85 96 96 98 92 48 20 18 17 16 16 15 14 14 16 21 29 40
10 10 11 11 10 10 10 10 10 10 10 8 8 8 7 6 7 8 10 9 11 14 12 8 8 12 33 35 37 30 61 99 98 74 28 19 21 25 25 30 52 50 88 96
12 11 11 12 12 11 11 10 8 7 7 7 6 6 6 6 6 6 6 6 6 6 5 6 6 7 8 10 19 20 19 20 33 55 89 86 93 96 94 73 86 86 93 94
16 16 17 16 14 12 10 10 10 8 5 5 5 6 5 6 7 7 6 6 6 5 5 5 5 5 6 8 11 13 14 15 14 13 11 10 15 38 37 12 8 8 10 55
28 30 27 26 25 22 18 14 13 12 11 7 7 5 4 5 5 6 5 4 4 4 4 4 4 5 5 5 7 11 16 17 18 17 17 18 19 18 17 15 14 14 14 14
34 35 34 32 31 31 32 29 30 28 24 21 22 17 13 13 12 12 11 10 10 10 10 9 9 10 12 12 11 10 9 12 16 17 17 16 14 15 18 20 21 19 19 19
33 32 31 33 28 29 30 31 32 31 31 32 31 32 31 30 28 26 27 25 23 20 18 18 17 17 17 19 22 24 25 22 15 11 12 14 16 16 14 12 14 17 19 20
27 26 26 24 23 22 23 24 25 26 27 28 30 32 34 36 37 38 39 38 33 26 24 25 26 26 27 26 25 26 26 26 24 23 22 20 16 14 12 12 13 14 15 17
23 23 22 20 19 18 19 20 19 20 22 20 21 20 21 25 32 33 35 40 42 44 46 48 50 45 36 32 31 34 36 36 37 35 32 30 28 26 24 24 24 23 22 21
13 13 13 13 12 12 12 13 13 11 10 14 13 12 12 14 17 20 22 25 27 31 38 46 50 52 57 64 70 72 72 71 71 68 68 70 70 67 61 56 48 41 35 32
8 8 8 8 9 9 8 9 9 9 9 10 10 13 18 26 26 30 33 38 40 37 35 33 34 35 36 40 43 47 48 48 50 50 53 57 61 65 68 68 67 68 69 66
12 11 12 12 11 13 13 14 15 14 13 14 18 22 28 31 32 26 23 33 33 33 31 31 27 23 28 28 29 23 18 20 15 11 9 8 8 8 8 8 9 9 10 9
6 7 6 8 9 10 8 8 8 9 16 21 20 19 16 13 14 12 11 13 14 14 12 11 11 11 11 11 10 9 9 7 6 6 5 6 6 8 9 10 11 11 11 11
6 7 7 6 9 7 6 6 7 10 15 15 12 12 10 9 9 8 8 9 9 10 10 14 15 13 12 10 9 7 6 6 6 6 6 9 12 14 14 14 16 17 17 17
9 10 12 8 6 6 5 7 6 8 9 9 8 8 10 9 9 8 8 9 9 9 9 12 18 23 23 21 20 17 14 14 14 13 13 16 18 20 22 24 25 27 24 20
24 21 20 14 9 5 5 5 6 7 8 7 7 8 8 8 9 9 10 10 10 9 9 10 10 10 14 17 19 21 22 20 19 20 22 24 31 32 31 31 28 21 18 13